| time (UTC) | temp F | wind direction | speed MPH | gust MPH | rain 1hr in | rain 24hr in | rain mn in | humidity % | barometer mb |
| 20260504021010 | 54 | 163 | 5.0 | 12.0 | 0.00 | 0.00 | 0.00 | 57 | 1017.5 |
| 20260504020910 | 54 | 213 | 5.0 | 12.0 | 0.00 | 0.00 | 0.00 | 57 | 1017.4 |
| 20260504020809 | 54 | 205 | 5.0 | 12.0 | 0.00 | 0.00 | 0.00 | 57 | 1017.4 |
| 20260504020709 | 54 | 205 | 5.0 | 12.0 | 0.00 | 0.00 | 0.00 | 56 | 1017.4 |
| 20260504020608 | 54 | 204 | 5.0 | 12.0 | 0.00 | 0.00 | 0.00 | 57 | 1017.4 |
| 20260504020541 | 54 | 186 | 5.0 | 11.0 | 0.00 | 0.00 | 0.00 | 57 | 1017.4 |
| 20260504020529 | 54 | 199 | 5.0 | 12.0 | 0.00 | 0.00 | 0.00 | 57 | 1017.4 |
| 20260504020309 | 54 | 213 | 5.0 | 11.0 | 0.00 | 0.00 | 0.00 | 57 | 1017.4 |
| 20260504020208 | 54 | 216 | 5.0 | 11.0 | 0.00 | 0.00 | 0.00 | 57 | 1017.4 |
| 20260504020111 | 54 | 162 | 5.0 | 11.0 | 0.00 | 0.00 | 0.00 | 57 | 1017.3 |
| 20260504020008 | 54 | 199 | 5.0 | 10.0 | 0.00 | 0.00 | 0.00 | 57 | 1017.3 |
| 20260504015910 | 54 | 182 | 5.0 | 10.0 | 0.00 | 0.00 | 0.00 | 57 | 1017.3 |
| 20260504015809 | 54 | 208 | 4.0 | 10.0 | 0.00 | 0.00 | 0.00 | 57 | 1017.3 |
| 20260504015730 | 54 | 184 | 5.0 | 10.0 | 0.00 | 0.00 | 0.00 | 57 | 1017.2 |
| 20260504015719 | 54 | 213 | 4.0 | 10.0 | 0.00 | 0.00 | 0.00 | 57 | 1017.3 |
| 20260504015500 | 54 | 208 | 5.0 | 10.0 | 0.00 | 0.00 | 0.00 | 57 | 1017.2 |
| 20260504015356 | 54 | 202 | 4.0 | 10.0 | 0.00 | 0.00 | 0.00 | 57 | 1017.3 |
| 20260504015258 | 54 | 202 | 5.0 | 10.0 | 0.00 | 0.00 | 0.00 | 57 | 1017.2 |
| 20260504015156 | 54 | 205 | 5.0 | 10.0 | 0.00 | 0.00 | 0.00 | 57 | 1017.2 |
| 20260504015057 | 54 | 209 | 5.0 | 10.0 | 0.00 | 0.00 | 0.00 | 57 | 1017.2 |
| 20260504015040 | 54 | 196 | 4.0 | 10.0 | 0.00 | 0.00 | 0.00 | 57 | 1017.2 |
| 20260504015035 | 54 | 275 | 5.0 | 12.0 | 0.00 | 0.00 | 0.00 | 57 | 1017.3 |
| 20260504015029 | 54 | 209 | 5.0 | 12.0 | 0.00 | 0.00 | 0.00 | 57 | 1017.3 |
| 20260504015019 | 54 | 203 | 4.0 | 10.0 | 0.00 | 0.00 | 0.00 | 57 | 1017.2 |
| 20260504014836 | 54 | 221 | 4.0 | 10.0 | 0.00 | 0.00 | 0.00 | 57 | 1017.3 |
| 20260504014456 | 54 | 177 | 4.0 | 12.0 | 0.00 | 0.00 | 0.00 | 57 | 1017.3 |
| 20260504014357 | 54 | 213 | 4.0 | 12.0 | 0.00 | 0.00 | 0.00 | 57 | 1017.3 |
| 20260504014329 | 54 | 213 | 4.0 | 12.0 | 0.00 | 0.00 | 0.00 | 58 | 1017.2 |
| 20260504014319 | 54 | 234 | 4.0 | 12.0 | 0.00 | 0.00 | 0.00 | 57 | 1017.2 |
| 20260504014056 | 54 | 190 | 4.0 | 12.0 | 0.00 | 0.00 | 0.00 | 57 | 1017.2 |
| 20260504014031 | 54 | 207 | 4.0 | 12.0 | 0.00 | 0.00 | 0.00 | 57 | 1017.2 |
| 20260504014020 | 54 | 205 | 4.0 | 12.0 | 0.00 | 0.00 | 0.00 | 57 | 1017.2 |
| 20260504013758 | 54 | 220 | 4.0 | 12.0 | 0.00 | 0.00 | 0.00 | 57 | 1017.3 |
| 20260504013657 | 54 | 199 | 4.0 | 9.0 | 0.00 | 0.00 | 0.00 | 57 | 1017.3 |
| 20260504013557 | 54 | 190 | 4.0 | 9.0 | 0.00 | 0.00 | 0.00 | 58 | 1017.2 |
| 20260504013456 | 54 | 208 | 4.0 | 11.0 | 0.00 | 0.00 | 0.00 | 58 | 1017.3 |
| 20260504013356 | 54 | 184 | 4.0 | 11.0 | 0.00 | 0.00 | 0.00 | 58 | 1017.2 |
| 20260504013329 | 54 | 181 | 4.0 | 11.0 | 0.00 | 0.00 | 0.00 | 58 | 1017.3 |
| 20260504013318 | 54 | 224 | 4.0 | 11.0 | 0.00 | 0.00 | 0.00 | 58 | 1017.2 |
| 20260504013055 | 54 | 181 | 4.0 | 11.0 | 0.00 | 0.00 | 0.00 | 57 | 1017.3 |
| 20260504012954 | 54 | 198 | 4.0 | 11.0 | 0.00 | 0.00 | 0.00 | 57 | 1017.3 |
| 20260504012856 | 54 | 202 | 4.0 | 11.0 | 0.00 | 0.00 | 0.00 | 57 | 1017.3 |
| 20260504012754 | 54 | 180 | 4.0 | 11.0 | 0.00 | 0.00 | 0.00 | 58 | 1017.3 |
| 20260504012654 | 54 | 215 | 4.0 | 11.0 | 0.00 | 0.00 | 0.00 | 57 | 1017.3 |
| 20260504012554 | 54 | 221 | 4.0 | 11.0 | 0.00 | 0.00 | 0.00 | 57 | 1017.3 |
| 20260504012454 | 54 | 209 | 4.0 | 10.0 | 0.00 | 0.00 | 0.00 | 57 | 1017.3 |
| 20260504012350 | 54 | 207 | 4.0 | 10.0 | 0.00 | 0.00 | 0.00 | 57 | 1017.3 |
| 20260504012251 | 54 | 239 | 4.0 | 10.0 | 0.00 | 0.00 | 0.00 | 57 | 1017.4 |
| 20260504012150 | 54 | 190 | 4.0 | 11.0 | 0.00 | 0.00 | 0.00 | 57 | 1017.3 |
| 20260504012124 | 54 | 182 | 4.0 | 11.0 | 0.00 | 0.00 | 0.00 | 57 | 1017.3 |
| 20260504012113 | 54 | 178 | 4.0 | 11.0 | 0.00 | 0.00 | 0.00 | 57 | 1017.3 |
| 20260504011851 | 54 | 227 | 4.0 | 11.0 | 0.00 | 0.00 | 0.00 | 57 | 1017.3 |
| 20260504011750 | 54 | 271 | 4.0 | 11.0 | 0.00 | 0.00 | 0.00 | 57 | 1017.3 |
| 20260504011651 | 54 | 184 | 4.0 | 11.0 | 0.00 | 0.00 | 0.00 | 57 | 1017.4 |
| 20260504011550 | 54 | 184 | 3.0 | 11.0 | 0.00 | 0.00 | 0.00 | 57 | 1017.3 |
| 20260504011450 | 54 | 210 | 3.0 | 11.0 | 0.00 | 0.00 | 0.00 | 57 | 1017.3 |
| 20260504011352 | 54 | 207 | 3.0 | 11.0 | 0.00 | 0.00 | 0.00 | 58 | 1017.4 |
| 20260504011328 | 54 | 210 | 3.0 | 9.0 | 0.00 | 0.00 | 0.00 | 58 | 1017.4 |
| 20260504011317 | 54 | 206 | 3.0 | 11.0 | 0.00 | 0.00 | 0.00 | 57 | 1017.4 |
| 20260504011052 | 54 | 275 | 3.0 | 9.0 | 0.00 | 0.00 | 0.00 | 57 | 1017.4 |
| 20260504010952 | 54 | 221 | 3.0 | 9.0 | 0.00 | 0.00 | 0.00 | 57 | 1017.3 |
| 20260504010852 | 54 | 210 | 3.0 | 9.0 | 0.00 | 0.00 | 0.00 | 56 | 1017.4 |
| 20260504010752 | 54 | 171 | 3.0 | 13.0 | 0.00 | 0.00 | 0.00 | 56 | 1017.2 |
| 20260504010717 | 54 | 218 | 3.0 | 13.0 | 0.00 | 0.00 | 0.00 | 56 | 1017.3 |
| 20260504010706 | 54 | 172 | 3.0 | 13.0 | 0.00 | 0.00 | 0.00 | 56 | 1017.3 |
| 20260504010444 | 54 | 194 | 3.0 | 13.0 | 0.00 | 0.00 | 0.00 | 56 | 1017.4 |
| 20260504010344 | 54 | 225 | 3.0 | 13.0 | 0.00 | 0.00 | 0.00 | 56 | 1017.4 |
| 20260504010244 | 54 | 229 | 3.0 | 13.0 | 0.00 | 0.00 | 0.00 | 56 | 1017.4 |
| 20260504010138 | 54 | 186 | 3.0 | 13.0 | 0.00 | 0.00 | 0.00 | 56 | 1017.3 |
| 20260504010109 | 54 | 171 | 3.0 | 13.0 | 0.00 | 0.00 | 0.00 | 56 | 1017.4 |
| 20260504010100 | 54 | 169 | 3.0 | 13.0 | 0.00 | 0.00 | 0.00 | 56 | 1017.4 |
| 20260504005838 | 54 | 199 | 3.0 | 8.0 | 0.00 | 0.00 | 0.00 | 56 | 1017.4 |
| 20260504005738 | 54 | 199 | 3.0 | 8.0 | 0.00 | 0.00 | 0.00 | 56 | 1017.4 |
| 20260504005636 | 54 | 193 | 3.0 | 8.0 | 0.00 | 0.00 | 0.00 | 56 | 1017.5 |
| 20260504005536 | 54 | 209 | 3.0 | 8.0 | 0.00 | 0.00 | 0.00 | 56 | 1017.4 |
| 20260504005435 | 54 | 209 | 3.0 | 8.0 | 0.00 | 0.00 | 0.00 | 56 | 1017.5 |
| 20260504005336 | 54 | 202 | 3.0 | 8.0 | 0.00 | 0.00 | 0.00 | 55 | 1017.5 |
| 20260504005235 | 54 | 242 | 3.0 | 8.0 | 0.00 | 0.00 | 0.00 | 57 | 1017.5 |
| 20260504005133 | 54 | 164 | 3.0 | 8.0 | 0.00 | 0.00 | 0.00 | 56 | 1017.5 |
| 20260504005032 | 54 | 171 | 3.0 | 8.0 | 0.00 | 0.00 | 0.00 | 57 | 1017.4 |
| 20260504004931 | 54 | 215 | 2.0 | 8.0 | 0.00 | 0.00 | 0.00 | 56 | 1017.4 |
| 20260504004832 | 54 | 181 | 2.0 | 6.0 | 0.00 | 0.00 | 0.00 | 58 | 1017.4 |
| 20260504004732 | 54 | 155 | 2.0 | 6.0 | 0.00 | 0.00 | 0.00 | 57 | 1017.5 |
| 20260504004631 | 54 | 290 | 2.0 | 8.0 | 0.00 | 0.00 | 0.00 | 56 | 1017.5 |
| 20260504004528 | 53 | 217 | 2.0 | 8.0 | 0.00 | 0.00 | 0.00 | 57 | 1017.5 |
| 20260504004430 | 53 | 192 | 2.0 | 8.0 | 0.00 | 0.00 | 0.00 | 57 | 1017.5 |
| 20260504004326 | 54 | 214 | 2.0 | 8.0 | 0.00 | 0.00 | 0.00 | 57 | 1017.5 |
| 20260504004226 | 54 | 194 | 2.0 | 8.0 | 0.00 | 0.00 | 0.00 | 59 | 1017.6 |
| 20260504004127 | 54 | 184 | 2.0 | 8.0 | 0.00 | 0.00 | 0.00 | 58 | 1017.6 |
| 20260504004058 | 54 | 195 | 2.0 | 8.0 | 0.00 | 0.00 | 0.00 | 56 | 1017.5 |
| 20260504004049 | 54 | 195 | 2.0 | 8.0 | 0.00 | 0.00 | 0.00 | 58 | 1017.6 |
| 20260504003820 | 54 | 195 | 2.0 | 8.0 | 0.00 | 0.00 | 0.00 | 57 | 1017.6 |
| 20260504003719 | 54 | 195 | 2.0 | 9.0 | 0.00 | 0.00 | 0.00 | 56 | 1017.6 |
| 20260504003622 | 54 | 175 | 2.0 | 9.0 | 0.00 | 0.00 | 0.00 | 57 | 1017.5 |
| 20260504003521 | 54 | 176 | 2.0 | 9.0 | 0.00 | 0.00 | 0.00 | 57 | 1017.5 |
| 20260504003417 | 54 | 162 | 2.0 | 9.0 | 0.00 | 0.00 | 0.00 | 57 | 1017.6 |
| 20260504003352 | 54 | 219 | 2.0 | 9.0 | 0.00 | 0.00 | 0.00 | 56 | 1017.5 |
| 20260504003341 | 54 | 219 | 2.0 | 9.0 | 0.00 | 0.00 | 0.00 | 57 | 1017.6 |
| 20260504003113 | 55 | 199 | 2.0 | 9.0 | 0.00 | 0.00 | 0.00 | 54 | 1017.5 |
| 20260504003015 | 55 | 193 | 2.0 | 9.0 | 0.00 | 0.00 | 0.00 | 54 | 1017.5 |
| 20260504002915 | 55 | 193 | 2.0 | 9.0 | 0.00 | 0.00 | 0.00 | 54 | 1017.6 |
| 20260504002814 | 55 | 175 | 3.0 | 9.0 | 0.00 | 0.00 | 0.00 | 54 | 1017.6 |
| 20260504002712 | 55 | 217 | 2.0 | 6.0 | 0.00 | 0.00 | 0.00 | 54 | 1017.6 |
| 20260504002612 | 55 | 195 | 3.0 | 6.0 | 0.00 | 0.00 | 0.00 | 55 | 1017.6 |
| 20260504002509 | 55 | 232 | 3.0 | 6.0 | 0.00 | 0.00 | 0.00 | 55 | 1017.6 |
| 20260504002432 | 55 | 227 | 3.0 | 6.0 | 0.00 | 0.00 | 0.00 | 57 | 1017.7 |
| 20260504002418 | 55 | 198 | 3.0 | 6.0 | 0.00 | 0.00 | 0.00 | 55 | 1017.6 |
| 20260504002154 | 55 | 193 | 3.0 | 6.0 | 0.00 | 0.00 | 0.00 | 57 | 1017.7 |
| 20260504002056 | 55 | 271 | 3.0 | 6.0 | 0.00 | 0.00 | 0.00 | 56 | 1017.7 |
| 20260504001955 | 55 | 204 | 3.0 | 6.0 | 0.00 | 0.00 | 0.00 | 53 | 1017.8 |
| 20260504001848 | 55 | 234 | 3.0 | 6.0 | 0.00 | 0.00 | 0.00 | 53 | 1017.9 |
| 20260504001749 | 56 | 196 | 3.0 | 6.0 | 0.00 | 0.00 | 0.00 | 52 | 1017.8 |
| 20260504001651 | 56 | 195 | 3.0 | 7.0 | 0.00 | 0.00 | 0.00 | 51 | 1017.8 |
| 20260504001548 | 56 | 202 | 3.0 | 7.0 | 0.00 | 0.00 | 0.00 | 50 | 1017.8 |
| 20260504001503 | 56 | 211 | 3.0 | 8.0 | 0.00 | 0.00 | 0.00 | 50 | 1018.0 |
| 20260504001452 | 56 | 217 | 3.0 | 7.0 | 0.00 | 0.00 | 0.00 | 50 | 1017.8 |
| 20260504001432 | 56 | 234 | 3.0 | 7.0 | 0.00 | 0.00 | 0.00 | 50 | 1017.9 |
| 20260504001310 | 56 | 206 | 3.0 | 7.0 | 0.00 | 0.00 | 0.00 | 50 | 1018.0 |
| 20260504001044 | 56 | 201 | 3.0 | 8.0 | 0.00 | 0.00 | 0.00 | 50 | 1017.9 |
| 20260504000942 | 56 | 200 | 3.0 | 8.0 | 0.00 | 0.00 | 0.00 | 49 | 1017.9 |
| 20260504000905 | 56 | 227 | 2.0 | 8.0 | 0.00 | 0.00 | 0.00 | 50 | 1017.9 |
| 20260504000852 | 56 | 204 | 2.0 | 8.0 | 0.00 | 0.00 | 0.00 | 49 | 1017.9 |
| 20260504000634 | 56 | 227 | 3.0 | 9.0 | 0.00 | 0.00 | 0.00 | 50 | 1017.9 |
| 20260504000534 | 56 | 183 | 3.0 | 9.0 | 0.00 | 0.00 | 0.00 | 50 | 1017.9 |
| 20260504000432 | 56 | 183 | 2.0 | 9.0 | 0.00 | 0.00 | 0.00 | 49 | 1017.9 |
| 20260504000325 | 56 | 232 | 3.0 | 9.0 | 0.00 | 0.00 | 0.00 | 49 | 1017.9 |
| 20260504000227 | 56 | 202 | 2.0 | 9.0 | 0.00 | 0.00 | 0.00 | 49 | 1017.9 |
| 20260504000125 | 56 | 227 | 2.0 | 9.0 | 0.00 | 0.00 | 0.00 | 49 | 1017.9 |
| 20260504000026 | 56 | 289 | 2.0 | 9.0 | 0.00 | 0.00 | 0.00 | 50 | 1017.9 |
| 20260503235927 | 56 | 204 | 2.0 | 9.0 | 0.00 | 0.00 | 0.00 | 50 | 1018.0 |
| 20260503235822 | 56 | 270 | 2.0 | 9.0 | 0.00 | 0.00 | 0.00 | 49 | 1017.9 |
| 20260503235724 | 56 | 218 | 2.0 | 9.0 | 0.00 | 0.00 | 0.00 | 50 | 1018.0 |
| 20260503235622 | 56 | 229 | 2.0 | 7.0 | 0.00 | 0.00 | 0.00 | 50 | 1018.0 |
| 20260503235524 | 56 | 254 | 2.0 | 7.0 | 0.00 | 0.00 | 0.00 | 50 | 1018.0 |
| 20260503235421 | 56 | 258 | 2.0 | 7.0 | 0.00 | 0.00 | 0.00 | 49 | 1018.0 |
| 20260503235342 | 56 | 208 | 3.0 | 7.0 | 0.00 | 0.00 | 0.00 | 49 | 1017.9 |
| 20260503235328 | 56 | 214 | 2.0 | 7.0 | 0.00 | 0.00 | 0.00 | 49 | 1017.9 |
| 20260503235107 | 56 | 171 | 3.0 | 9.0 | 0.00 | 0.00 | 0.00 | 49 | 1017.9 |
| 20260503235005 | 56 | 197 | 3.0 | 9.0 | 0.00 | 0.00 | 0.00 | 50 | 1017.9 |
| 20260503234904 | 56 | 221 | 3.0 | 9.0 | 0.00 | 0.00 | 0.00 | 49 | 1018.0 |
| 20260503234801 | 56 | 226 | 2.0 | 9.0 | 0.00 | 0.00 | 0.00 | 50 | 1017.9 |
| 20260503234703 | 56 | 215 | 2.0 | 9.0 | 0.00 | 0.00 | 0.00 | 49 | 1017.9 |
| 20260503234639 | 57 | 211 | 2.0 | 9.0 | 0.00 | 0.00 | 0.00 | 50 | 1017.9 |
| 20260503234635 | 57 | 207 | 3.0 | 9.0 | 0.00 | 0.00 | 0.00 | 49 | 1018.0 |
| 20260503234624 | 57 | 205 | 2.0 | 9.0 | 0.00 | 0.00 | 0.00 | 50 | 1017.9 |
| 20260503234442 | 57 | 221 | 3.0 | 9.0 | 0.00 | 0.00 | 0.00 | 49 | 1018.0 |
| 20260503234318 | 57 | 188 | 2.0 | 9.0 | 0.00 | 0.00 | 0.00 | 50 | 1018.0 |
| 20260503234054 | 57 | 172 | 2.0 | 9.0 | 0.00 | 0.00 | 0.00 | 51 | 1017.9 |
| 20260503233953 | 57 | 196 | 2.0 | 9.0 | 0.00 | 0.00 | 0.00 | 51 | 1017.9 |
| 20260503233853 | 57 | 221 | 3.0 | 9.0 | 0.00 | 0.00 | 0.00 | 50 | 1017.9 |
| 20260503233750 | 57 | 220 | 3.0 | 9.0 | 0.00 | 0.00 | 0.00 | 50 | 1017.9 |
| 20260503233649 | 57 | 207 | 3.0 | 9.0 | 0.00 | 0.00 | 0.00 | 50 | 1017.9 |
| 20260503233548 | 57 | 223 | 3.0 | 9.0 | 0.00 | 0.00 | 0.00 | 51 | 1017.9 |
| 20260503233449 | 57 | 276 | 2.0 | 8.0 | 0.00 | 0.00 | 0.00 | 50 | 1017.9 |
| 20260503233349 | 57 | 202 | 3.0 | 8.0 | 0.00 | 0.00 | 0.00 | 50 | 1017.9 |
| 20260503233306 | 58 | 196 | 3.0 | 8.0 | 0.00 | 0.00 | 0.00 | 48 | 1017.9 |
| 20260503233300 | 58 | 207 | 3.0 | 8.0 | 0.00 | 0.00 | 0.00 | 48 | 1017.9 |
| 20260503233250 | 57 | 202 | 3.0 | 8.0 | 0.00 | 0.00 | 0.00 | 50 | 1017.8 |
| 20260503233229 | 58 | 215 | 3.0 | 8.0 | 0.00 | 0.00 | 0.00 | 50 | 1017.8 |
| 20260503232846 | 58 | 205 | 3.0 | 9.0 | 0.00 | 0.00 | 0.00 | 49 | 1017.9 |
| 20260503232746 | 58 | 201 | 3.0 | 9.0 | 0.00 | 0.00 | 0.00 | 50 | 1017.9 |
| 20260503232646 | 58 | 200 | 3.0 | 10.0 | 0.00 | 0.00 | 0.00 | 49 | 1017.9 |
| 20260503232546 | 58 | 234 | 3.0 | 10.0 | 0.00 | 0.00 | 0.00 | 48 | 1017.9 |
| 20260503232446 | 58 | 210 | 3.0 | 10.0 | 0.00 | 0.00 | 0.00 | 48 | 1017.9 |
| 20260503232343 | 58 | 208 | 3.0 | 10.0 | 0.00 | 0.00 | 0.00 | 47 | 1017.9 |
| 20260503232244 | 58 | 198 | 3.0 | 10.0 | 0.00 | 0.00 | 0.00 | 48 | 1017.9 |
| 20260503232140 | 58 | 215 | 3.0 | 10.0 | 0.00 | 0.00 | 0.00 | 48 | 1017.9 |
| 20260503232036 | 58 | 250 | 3.0 | 10.0 | 0.00 | 0.00 | 0.00 | 49 | 1017.8 |
| 20260503231937 | 58 | 291 | 4.0 | 10.0 | 0.00 | 0.00 | 0.00 | 48 | 1017.9 |
| 20260503231835 | 58 | 196 | 4.0 | 10.0 | 0.00 | 0.00 | 0.00 | 48 | 1017.9 |
| 20260503231735 | 59 | 183 | 4.0 | 10.0 | 0.00 | 0.00 | 0.00 | 49 | 1017.9 |
| 20260503231636 | 59 | 240 | 3.0 | 11.0 | 0.00 | 0.00 | 0.00 | 49 | 1017.9 |
| 20260503231532 | 59 | 189 | 4.0 | 11.0 | 0.00 | 0.00 | 0.00 | 48 | 1017.9 |
| 20260503231433 | 59 | 271 | 3.0 | 11.0 | 0.00 | 0.00 | 0.00 | 49 | 1017.9 |
| 20260503231331 | 59 | 196 | 3.0 | 11.0 | 0.00 | 0.00 | 0.00 | 51 | 1017.9 |
| 20260503231231 | 59 | 187 | 3.0 | 11.0 | 0.00 | 0.00 | 0.00 | 50 | 1017.9 |
| 20260503231206 | 59 | 198 | 3.0 | 11.0 | 0.00 | 0.00 | 0.00 | 49 | 1018.0 |
| 20260503231154 | 59 | 243 | 3.0 | 11.0 | 0.00 | 0.00 | 0.00 | 49 | 1017.9 |
| 20260503230930 | 59 | 202 | 2.0 | 11.0 | 0.00 | 0.00 | 0.00 | 49 | 1017.9 |
| 20260503230830 | 59 | 199 | 3.0 | 11.0 | 0.00 | 0.00 | 0.00 | 50 | 1018.0 |
| 20260503230728 | 60 | 236 | 3.0 | 9.0 | 0.00 | 0.00 | 0.00 | 51 | 1018.0 |
| 20260503230706 | 60 | 207 | 3.0 | 9.0 | 0.00 | 0.00 | 0.00 | 51 | 1018.1 |
| 20260503230652 | 60 | 183 | 3.0 | 9.0 | 0.00 | 0.00 | 0.00 | 51 | 1018.1 |
| 20260503230428 | 60 | 169 | 3.0 | 10.0 | 0.00 | 0.00 | 0.00 | 50 | 1018.1 |
| 20260503230328 | 60 | 167 | 3.0 | 10.0 | 0.00 | 0.00 | 0.00 | 50 | 1018.1 |
| 20260503230257 | 59 | 207 | 3.0 | 10.0 | 0.00 | 0.00 | 0.00 | 50 | 1018.2 |
| 20260503230248 | 59 | 207 | 3.0 | 10.0 | 0.00 | 0.00 | 0.00 | 50 | 1018.1 |
| 20260503230028 | 60 | 207 | 3.0 | 10.0 | 0.00 | 0.00 | 0.00 | 49 | 1018.2 |
| 20260503225954 | 60 | 254 | 3.0 | 10.0 | 0.00 | 0.00 | 0.00 | 49 | 1018.2 |
| 20260503225944 | 60 | 241 | 3.0 | 10.0 | 0.00 | 0.00 | 0.00 | 50 | 1018.2 |
| 20260503225722 | 60 | 326 | 3.0 | 10.0 | 0.00 | 0.00 | 0.00 | 48 | 1018.2 |
| 20260503225624 | 60 | 269 | 3.0 | 10.0 | 0.00 | 0.00 | 0.00 | 48 | 1018.4 |
| 20260503225522 | 60 | 234 | 2.0 | 10.0 | 0.00 | 0.00 | 0.00 | 49 | 1018.4 |
| 20260503225423 | 60 | 221 | 3.0 | 7.0 | 0.00 | 0.00 | 0.00 | 49 | 1018.5 |
| 20260503225322 | 60 | 209 | 3.0 | 7.0 | 0.00 | 0.00 | 0.00 | 49 | 1018.5 |
| 20260503225221 | 60 | 213 | 3.0 | 7.0 | 0.00 | 0.00 | 0.00 | 48 | 1018.6 |
| 20260503225119 | 60 | 224 | 3.0 | 7.0 | 0.00 | 0.00 | 0.00 | 52 | 1018.5 |
| 20260503225017 | 60 | 193 | 3.0 | 7.0 | 0.00 | 0.00 | 0.00 | 50 | 1018.5 |
| 20260503224918 | 60 | 5 | 3.0 | 7.0 | 0.00 | 0.00 | 0.00 | 49 | 1018.6 |
| 20260503224816 | 60 | 15 | 3.0 | 8.0 | 0.00 | 0.00 | 0.00 | 48 | 1018.6 |
| 20260503224726 | 60 | 15 | 3.0 | 8.0 | 0.00 | 0.00 | 0.00 | 46 | 1018.5 |
| 20260503224615 | 60 | 173 | 3.0 | 9.0 | 0.00 | 0.00 | 0.00 | 47 | 1018.6 |
| 20260503224514 | 60 | 247 | 3.0 | 9.0 | 0.00 | 0.00 | 0.00 | 46 | 1018.6 |
| 20260503224415 | 60 | 210 | 3.0 | 9.0 | 0.00 | 0.00 | 0.00 | 46 | 1018.6 |
| 20260503224315 | 60 | 195 | 3.0 | 9.0 | 0.00 | 0.00 | 0.00 | 46 | 1018.6 |
| 20260503224213 | 60 | 219 | 4.0 | 9.0 | 0.00 | 0.00 | 0.00 | 45 | 1018.6 |
| 20260503224113 | 60 | 204 | 3.0 | 9.0 | 0.00 | 0.00 | 0.00 | 46 | 1018.6 |
| 20260503224029 | 60 | 217 | 3.0 | 9.0 | 0.00 | 0.00 | 0.00 | 46 | 1018.7 |
| 20260503224023 | 60 | 211 | 3.0 | 9.0 | 0.00 | 0.00 | 0.00 | 45 | 1018.7 |
| 20260503224013 | 60 | 215 | 3.0 | 9.0 | 0.00 | 0.00 | 0.00 | 47 | 1018.6 |
| 20260503223951 | 60 | 208 | 3.0 | 9.0 | 0.00 | 0.00 | 0.00 | 46 | 1018.7 |
| 20260503223613 | 60 | 200 | 3.0 | 9.0 | 0.00 | 0.00 | 0.00 | 46 | 1018.8 |
| 20260503223512 | 60 | 196 | 3.0 | 9.0 | 0.00 | 0.00 | 0.00 | 46 | 1018.7 |
| 20260503223409 | 60 | 244 | 3.0 | 9.0 | 0.00 | 0.00 | 0.00 | 46 | 1018.7 |
| 20260503223310 | 60 | 217 | 2.0 | 9.0 | 0.00 | 0.00 | 0.00 | 48 | 1018.8 |
| 20260503223211 | 60 | 209 | 2.0 | 9.0 | 0.00 | 0.00 | 0.00 | 47 | 1018.8 |
| 20260503223107 | 60 | 292 | 2.0 | 9.0 | 0.00 | 0.00 | 0.00 | 48 | 1018.7 |
| 20260503223045 | 60 | 269 | 3.0 | 10.0 | 0.00 | 0.00 | 0.00 | 48 | 1018.7 |
| 20260503223033 | 60 | 212 | 3.0 | 9.0 | 0.00 | 0.00 | 0.00 | 48 | 1018.8 |
| 20260503222809 | 60 | 267 | 3.0 | 10.0 | 0.00 | 0.00 | 0.00 | 48 | 1018.7 |
| 20260503222708 | 60 | 224 | 3.0 | 10.0 | 0.00 | 0.00 | 0.00 | 48 | 1018.7 |
| 20260503222607 | 60 | 224 | 3.0 | 10.0 | 0.00 | 0.00 | 0.00 | 47 | 1018.8 |
| 20260503222507 | 60 | 200 | 4.0 | 11.0 | 0.00 | 0.00 | 0.00 | 48 | 1018.8 |
| 20260503222407 | 60 | 167 | 4.0 | 11.0 | 0.00 | 0.00 | 0.00 | 47 | 1018.7 |
| 20260503222308 | 60 | 167 | 4.0 | 11.0 | 0.00 | 0.00 | 0.00 | 45 | 1018.7 |
| 20260503222204 | 60 | 209 | 4.0 | 11.0 | 0.00 | 0.00 | 0.00 | 46 | 1018.8 |
| 20260503222108 | 60 | 208 | 4.0 | 11.0 | 0.00 | 0.00 | 0.00 | 46 | 1018.8 |
| 20260503222100 | 60 | 277 | 4.0 | 11.0 | 0.00 | 0.00 | 0.00 | 45 | 1018.8 |
| 20260503222055 | 60 | 215 | 4.0 | 11.0 | 0.00 | 0.00 | 0.00 | 45 | 1018.7 |
| 20260503222037 | 60 | 238 | 4.0 | 11.0 | 0.00 | 0.00 | 0.00 | 47 | 1018.8 |
| 20260503221657 | 60 | 200 | 4.0 | 11.0 | 0.00 | 0.00 | 0.00 | 44 | 1018.8 |
| 20260503221556 | 60 | 215 | 4.0 | 14.0 | 0.00 | 0.00 | 0.00 | 45 | 1018.8 |
| 20260503221457 | 60 | 188 | 4.0 | 14.0 | 0.00 | 0.00 | 0.00 | 44 | 1018.7 |
| 20260503221405 | 60 | 211 | 4.0 | 14.0 | 0.00 | 0.00 | 0.00 | 46 | 1018.7 |
| 20260503221354 | 60 | 205 | 4.0 | 14.0 | 0.00 | 0.00 | 0.00 | 44 | 1018.8 |
| 20260503221332 | 60 | 211 | 4.0 | 14.0 | 0.00 | 0.00 | 0.00 | 48 | 1018.7 |
| 20260503221211 | 60 | 213 | 4.0 | 14.0 | 0.00 | 0.00 | 0.00 | 46 | 1018.8 |
| 20260503220951 | 60 | 270 | 4.0 | 14.0 | 0.00 | 0.00 | 0.00 | 45 | 1018.8 |
| 20260503220925 | 60 | 219 | 4.0 | 14.0 | 0.00 | 0.00 | 0.00 | 45 | 1018.8 |
| 20260503220912 | 60 | 189 | 4.0 | 14.0 | 0.00 | 0.00 | 0.00 | 45 | 1018.8 |
| 20260503220649 | 61 | 195 | 4.0 | 14.0 | 0.00 | 0.00 | 0.00 | 47 | 1018.7 |
| 20260503220547 | 61 | 221 | 4.0 | 14.0 | 0.00 | 0.00 | 0.00 | 47 | 1018.8 |
| 20260503220448 | 61 | 192 | 4.0 | 14.0 | 0.00 | 0.00 | 0.00 | 48 | 1018.8 |
| 20260503220359 | 61 | 226 | 4.0 | 11.0 | 0.00 | 0.00 | 0.00 | 44 | 1018.9 |
| 20260503220348 | 61 | 193 | 4.0 | 11.0 | 0.00 | 0.00 | 0.00 | 46 | 1018.7 |
| 20260503220328 | 61 | 259 | 4.0 | 11.0 | 0.00 | 0.00 | 0.00 | 46 | 1018.8 |
| 20260503220206 | 61 | 193 | 4.0 | 11.0 | 0.00 | 0.00 | 0.00 | 44 | 1018.8 |
| 20260503215948 | 61 | 211 | 4.0 | 11.0 | 0.00 | 0.00 | 0.00 | 44 | 1018.9 |
| 20260503215848 | 61 | 240 | 3.0 | 11.0 | 0.00 | 0.00 | 0.00 | 43 | 1018.9 |
| 20260503215748 | 61 | 262 | 3.0 | 11.0 | 0.00 | 0.00 | 0.00 | 43 | 1018.9 |
| 20260503215642 | 61 | 259 | 3.0 | 11.0 | 0.00 | 0.00 | 0.00 | 43 | 1018.9 |
| 20260503215543 | 61 | 243 | 3.0 | 11.0 | 0.00 | 0.00 | 0.00 | 45 | 1018.9 |
| 20260503215517 | 61 | 208 | 3.0 | 9.0 | 0.00 | 0.00 | 0.00 | 45 | 1018.9 |
| 20260503215505 | 61 | 221 | 3.0 | 9.0 | 0.00 | 0.00 | 0.00 | 46 | 1019.0 |
| 20260503215244 | 61 | 209 | 3.0 | 9.0 | 0.00 | 0.00 | 0.00 | 44 | 1018.9 |
| 20260503215232 | 61 | 205 | 3.0 | 8.0 | 0.00 | 0.00 | 0.00 | 45 | 1019.0 |
| 20260503215207 | 61 | 210 | 3.0 | 9.0 | 0.00 | 0.00 | 0.00 | 45 | 1018.9 |
| 20260503215045 | 61 | 286 | 3.0 | 8.0 | 0.00 | 0.00 | 0.00 | 45 | 1019.1 |
| 20260503215034 | 61 | 235 | 3.0 | 9.0 | 0.00 | 0.00 | 0.00 | 48 | 1019.0 |
| 20260503215011 | 61 | 187 | 3.0 | 8.0 | 0.00 | 0.00 | 0.00 | 46 | 1019.0 |
| 20260503214629 | 61 | 274 | 3.0 | 8.0 | 0.00 | 0.00 | 0.00 | 47 | 1019.1 |
| 20260503214526 | 61 | 196 | 3.0 | 8.0 | 0.00 | 0.00 | 0.00 | 43 | 1019.1 |
| 20260503214425 | 61 | 195 | 4.0 | 8.0 | 0.00 | 0.00 | 0.00 | 42 | 1019.1 |
| 20260503214325 | 61 | 265 | 4.0 | 11.0 | 0.00 | 0.00 | 0.00 | 44 | 1019.2 |
| 20260503214223 | 61 | 206 | 3.0 | 11.0 | 0.00 | 0.00 | 0.00 | 46 | 1019.2 |
| 20260503214119 | 61 | 66 | 3.0 | 11.0 | 0.00 | 0.00 | 0.00 | 44 | 1019.2 |
| 20260503214043 | 62 | 252 | 4.0 | 11.0 | 0.00 | 0.00 | 0.00 | 45 | 1019.3 |
| 20260503214029 | 61 | 282 | 4.0 | 11.0 | 0.00 | 0.00 | 0.00 | 44 | 1019.2 |
| 20260503214004 | 61 | 274 | 4.0 | 11.0 | 0.00 | 0.00 | 0.00 | 42 | 1019.3 |
| 20260503213839 | 62 | 235 | 3.0 | 11.0 | 0.00 | 0.00 | 0.00 | 44 | 1019.2 |
| 20260503213609 | 62 | 225 | 4.0 | 11.0 | 0.00 | 0.00 | 0.00 | 44 | 1019.3 |
| 20260503213538 | 62 | 179 | 3.0 | 11.0 | 0.00 | 0.00 | 0.00 | 46 | 1019.3 |
| 20260503213529 | 62 | 273 | 3.0 | 11.0 | 0.00 | 0.00 | 0.00 | 44 | 1019.3 |
| 20260503213305 | 62 | 194 | 3.0 | 9.0 | 0.00 | 0.00 | 0.00 | 46 | 1019.3 |
| 20260503213206 | 62 | 207 | 3.0 | 9.0 | 0.00 | 0.00 | 0.00 | 42 | 1019.3 |
| 20260503213101 | 62 | 265 | 3.0 | 9.0 | 0.00 | 0.00 | 0.00 | 44 | 1019.3 |
| 20260503212959 | 62 | 205 | 3.0 | 8.0 | 0.00 | 0.00 | 0.00 | 45 | 1019.2 |
| 20260503212932 | 62 | 227 | 2.0 | 8.0 | 0.00 | 0.00 | 0.00 | 44 | 1019.3 |
| 20260503212922 | 62 | 211 | 2.0 | 8.0 | 0.00 | 0.00 | 0.00 | 44 | 1019.3 |
| 20260503212700 | 62 | 188 | 2.0 | 5.0 | 0.00 | 0.00 | 0.00 | 43 | 1019.3 |
| 20260503212557 | 62 | 170 | 2.0 | 8.0 | 0.00 | 0.00 | 0.00 | 41 | 1019.3 |
| 20260503212456 | 62 | 169 | 2.0 | 8.0 | 0.00 | 0.00 | 0.00 | 43 | 1019.3 |
| 20260503212356 | 62 | 165 | 2.0 | 8.0 | 0.00 | 0.00 | 0.00 | 45 | 1019.3 |
| 20260503212254 | 62 | 187 | 2.0 | 8.0 | 0.00 | 0.00 | 0.00 | 42 | 1019.3 |
| 20260503212154 | 62 | 200 | 2.0 | 8.0 | 0.00 | 0.00 | 0.00 | 45 | 1019.2 |
| 20260503212048 | 62 | 201 | 2.0 | 8.0 | 0.00 | 0.00 | 0.00 | 42 | 1019.2 |
| 20260503212018 | 61 | 263 | 4.0 | 12.0 | 0.00 | 0.00 | 0.00 | 43 | 1019.4 |
| 20260503212013 | 62 | 178 | 3.0 | 8.0 | 0.00 | 0.00 | 0.00 | 43 | 1019.3 |
| 20260503212009 | 62 | 350 | 3.0 | 8.0 | 0.00 | 0.00 | 0.00 | 43 | 1019.3 |
| 20260503211956 | 62 | 348 | 2.0 | 8.0 | 0.00 | 0.00 | 0.00 | 42 | 1019.3 |
| 20260503211939 | 62 | 19 | 2.0 | 8.0 | 0.00 | 0.00 | 0.00 | 45 | 1019.3 |
| 20260503211641 | 62 | 240 | 3.0 | 8.0 | 0.00 | 0.00 | 0.00 | 45 | 1019.3 |
| 20260503211529 | 62 | 239 | 3.0 | 9.0 | 0.00 | 0.00 | 0.00 | 44 | 1019.3 |
| 20260503211523 | 61 | 194 | 3.0 | 9.0 | 0.00 | 0.00 | 0.00 | 45 | 1019.3 |
| 20260503211512 | 62 | 239 | 3.0 | 8.0 | 0.00 | 0.00 | 0.00 | 45 | 1019.3 |
| 20260503211333 | 61 | 231 | 3.0 | 9.0 | 0.00 | 0.00 | 0.00 | 46 | 1019.3 |
| 20260503211052 | 61 | 194 | 4.0 | 12.0 | 0.00 | 0.00 | 0.00 | 44 | 1019.4 |
| 20260503211041 | 61 | 240 | 4.0 | 9.0 | 0.00 | 0.00 | 0.00 | 42 | 1019.3 |
| 20260503211022 | 61 | 240 | 4.0 | 12.0 | 0.00 | 0.00 | 0.00 | 42 | 1019.4 |
| 20260503210641 | 61 | 192 | 4.0 | 12.0 | 0.00 | 0.00 | 0.00 | 46 | 1019.4 |
| 20260503210543 | 61 | 194 | 4.0 | 12.0 | 0.00 | 0.00 | 0.00 | 47 | 1019.4 |
| 20260503210443 | 61 | 218 | 4.0 | 12.0 | 0.00 | 0.00 | 0.00 | 43 | 1019.3 |
| 20260503210338 | 61 | 183 | 4.0 | 12.0 | 0.00 | 0.00 | 0.00 | 42 | 1019.4 |
| 20260503210313 | 61 | 227 | 4.0 | 12.0 | 0.00 | 0.00 | 0.00 | 42 | 1019.4 |
| 20260503210300 | 61 | 250 | 5.0 | 12.0 | 0.00 | 0.00 | 0.00 | 41 | 1019.4 |
| 20260503210037 | 61 | 198 | 4.0 | 12.0 | 0.00 | 0.00 | 0.00 | 47 | 1019.4 |
| 20260503205937 | 61 | 152 | 4.0 | 11.0 | 0.00 | 0.00 | 0.00 | 45 | 1019.4 |
| 20260503205851 | 61 | 183 | 4.0 | 12.0 | 0.00 | 0.00 | 0.00 | 41 | 1019.4 |
| 20260503205839 | 61 | 240 | 4.0 | 11.0 | 0.00 | 0.00 | 0.00 | 43 | 1019.4 |
| 20260503205832 | 61 | 200 | 4.0 | 12.0 | 0.00 | 0.00 | 0.00 | 42 | 1019.4 |
| 20260503205812 | 61 | 216 | 4.0 | 12.0 | 0.00 | 0.00 | 0.00 | 44 | 1019.4 |
| 20260503205432 | 61 | 209 | 4.0 | 12.0 | 0.00 | 0.00 | 0.00 | 43 | 1019.5 |
| 20260503205334 | 61 | 236 | 4.0 | 12.0 | 0.00 | 0.00 | 0.00 | 44 | 1019.4 |
| 20260503205232 | 61 | 207 | 4.0 | 12.0 | 0.00 | 0.00 | 0.00 | 43 | 1019.4 |
| 20260503205131 | 61 | 192 | 4.0 | 12.0 | 0.00 | 0.00 | 0.00 | 44 | 1019.4 |
| 20260503205032 | 61 | 220 | 4.0 | 12.0 | 0.00 | 0.00 | 0.00 | 45 | 1019.4 |
| 20260503204932 | 61 | 219 | 5.0 | 12.0 | 0.00 | 0.00 | 0.00 | 43 | 1019.4 |
| 20260503204833 | 61 | 227 | 5.0 | 15.0 | 0.00 | 0.00 | 0.00 | 44 | 1019.5 |
| 20260503204733 | 61 | 209 | 5.0 | 15.0 | 0.00 | 0.00 | 0.00 | 43 | 1019.5 |
| 20260503204629 | 61 | 204 | 5.0 | 15.0 | 0.00 | 0.00 | 0.00 | 42 | 1019.5 |
| 20260503204528 | 61 | 298 | 5.0 | 15.0 | 0.00 | 0.00 | 0.00 | 41 | 1019.6 |
| 20260503204427 | 61 | 204 | 4.0 | 15.0 | 0.00 | 0.00 | 0.00 | 43 | 1019.5 |
| 20260503204326 | 61 | 222 | 4.0 | 15.0 | 0.00 | 0.00 | 0.00 | 45 | 1019.5 |
| 20260503204226 | 61 | 225 | 4.0 | 15.0 | 0.00 | 0.00 | 0.00 | 45 | 1019.5 |
| 20260503204125 | 61 | 184 | 4.0 | 15.0 | 0.00 | 0.00 | 0.00 | 42 | 1019.5 |
| 20260503204023 | 61 | 172 | 4.0 | 15.0 | 0.00 | 0.00 | 0.00 | 44 | 1019.6 |
| 20260503203921 | 61 | 225 | 4.0 | 15.0 | 0.00 | 0.00 | 0.00 | 43 | 1019.6 |
| 20260503203858 | 61 | 182 | 4.0 | 11.0 | 0.00 | 0.00 | 0.00 | 46 | 1019.7 |
| 20260503203847 | 61 | 242 | 3.0 | 11.0 | 0.00 | 0.00 | 0.00 | 43 | 1019.6 |
| 20260503203650 | 61 | 222 | 4.0 | 10.0 | 0.00 | 0.00 | 0.00 | 47 | 1019.6 |
| 20260503203637 | 61 | 208 | 4.0 | 11.0 | 0.00 | 0.00 | 0.00 | 43 | 1019.6 |
| 20260503203419 | 61 | 275 | 5.0 | 15.0 | 0.00 | 0.00 | 0.00 | 43 | 1019.7 |
| 20260503203410 | 61 | 211 | 4.0 | 10.0 | 0.00 | 0.00 | 0.00 | 45 | 1019.6 |
| 20260503203403 | 61 | 290 | 5.0 | 15.0 | 0.00 | 0.00 | 0.00 | 42 | 1019.7 |
| 20260503203346 | 61 | 259 | 4.0 | 15.0 | 0.00 | 0.00 | 0.00 | 43 | 1019.7 |
| 20260503203004 | 61 | 240 | 5.0 | 15.0 | 0.00 | 0.00 | 0.00 | 42 | 1019.8 |
| 20260503202905 | 61 | 194 | 5.0 | 15.0 | 0.00 | 0.00 | 0.00 | 41 | 1019.9 |
| 20260503202806 | 61 | 198 | 5.0 | 15.0 | 0.00 | 0.00 | 0.00 | 41 | 1019.8 |
| 20260503202706 | 61 | 236 | 5.0 | 15.0 | 0.00 | 0.00 | 0.00 | 41 | 1019.8 |
| 20260503202559 | 62 | 192 | 4.0 | 15.0 | 0.00 | 0.00 | 0.00 | 41 | 1019.9 |
| 20260503202521 | 61 | 184 | 4.0 | 12.0 | 0.00 | 0.00 | 0.00 | 44 | 1020.2 |
| 20260503202516 | 61 | 246 | 3.0 | 11.0 | 0.00 | 0.00 | 0.00 | 43 | 1020.2 |
| 20260503202511 | 61 | 323 | 4.0 | 11.0 | 0.00 | 0.00 | 0.00 | 42 | 1020.1 |
| 20260503202501 | 62 | 164 | 4.0 | 15.0 | 0.00 | 0.00 | 0.00 | 44 | 1019.9 |
| 20260503202443 | 61 | 244 | 4.0 | 15.0 | 0.00 | 0.00 | 0.00 | 46 | 1020.1 |
| 20260503202421 | 61 | 277 | 4.0 | 14.0 | 0.00 | 0.00 | 0.00 | 45 | 1020.1 |
| 20260503202011 | 61 | 217 | 4.0 | 11.0 | 0.00 | 0.00 | 0.00 | 43 | 1020.2 |
| 20260503201750 | 61 | 232 | 4.0 | 12.0 | 0.00 | 0.00 | 0.00 | 40 | 1020.2 |
| 20260503201649 | 61 | 183 | 4.0 | 12.0 | 0.00 | 0.00 | 0.00 | 45 | 1020.2 |
| 20260503201544 | 61 | 198 | 4.0 | 12.0 | 0.00 | 0.00 | 0.00 | 44 | 1020.2 |
| 20260503201443 | 61 | 227 | 5.0 | 12.0 | 0.00 | 0.00 | 0.00 | 41 | 1020.2 |
| 20260503201346 | 61 | 302 | 5.0 | 12.0 | 0.00 | 0.00 | 0.00 | 40 | 1020.2 |
| 20260503201244 | 61 | 238 | 5.0 | 14.0 | 0.00 | 0.00 | 0.00 | 45 | 1020.4 |
| 20260503201143 | 61 | 215 | 5.0 | 14.0 | 0.00 | 0.00 | 0.00 | 44 | 1020.4 |
| 20260503201039 | 61 | 196 | 5.0 | 14.0 | 0.00 | 0.00 | 0.00 | 41 | 1020.4 |
| 20260503200939 | 61 | 223 | 5.0 | 14.0 | 0.00 | 0.00 | 0.00 | 42 | 1020.4 |
| 20260503200837 | 61 | 245 | 5.0 | 14.0 | 0.00 | 0.00 | 0.00 | 40 | 1020.3 |
| 20260503200737 | 61 | 248 | 5.0 | 14.0 | 0.00 | 0.00 | 0.00 | 39 | 1020.4 |
| 20260503200638 | 61 | 200 | 5.0 | 14.0 | 0.00 | 0.00 | 0.00 | 43 | 1020.4 |
| 20260503200532 | 61 | 207 | 5.0 | 14.0 | 0.00 | 0.00 | 0.00 | 43 | 1020.3 |
| 20260503200429 | 61 | 225 | 4.0 | 14.0 | 0.00 | 0.00 | 0.00 | 43 | 1020.2 |
| 20260503200330 | 61 | 206 | 5.0 | 14.0 | 0.00 | 0.00 | 0.00 | 40 | 1020.4 |
| 20260503200232 | 61 | 255 | 4.0 | 13.0 | 0.00 | 0.00 | 0.00 | 44 | 1020.4 |
| 20260503200130 | 61 | 214 | 4.0 | 12.0 | 0.00 | 0.00 | 0.00 | 41 | 1020.3 |
| 20260503200032 | 61 | 339 | 4.0 | 12.0 | 0.00 | 0.00 | 0.00 | 43 | 1020.4 |
| 20260503195933 | 61 | 194 | 5.0 | 11.0 | 0.00 | 0.00 | 0.00 | 44 | 1020.4 |
| 20260503195832 | 61 | 178 | 4.0 | 14.0 | 0.00 | 0.00 | 0.00 | 42 | 1020.4 |
| 20260503195731 | 61 | 235 | 5.0 | 14.0 | 0.00 | 0.00 | 0.00 | 39 | 1020.3 |
| 20260503195632 | 61 | 215 | 5.0 | 14.0 | 0.00 | 0.00 | 0.00 | 38 | 1020.4 |
| 20260503195531 | 61 | 202 | 4.0 | 14.0 | 0.00 | 0.00 | 0.00 | 39 | 1020.4 |
| 20260503195432 | 61 | 224 | 4.0 | 14.0 | 0.00 | 0.00 | 0.00 | 40 | 1020.4 |
| 20260503195354 | 61 | 210 | 4.0 | 14.0 | 0.00 | 0.00 | 0.00 | 40 | 1020.5 |
| 20260503195342 | 61 | 204 | 4.0 | 14.0 | 0.00 | 0.00 | 0.00 | 42 | 1020.5 |
| 20260503195318 | 61 | 247 | 4.0 | 14.0 | 0.00 | 0.00 | 0.00 | 41 | 1020.5 |
| 20260503195147 | 61 | 259 | 4.0 | 14.0 | 0.00 | 0.00 | 0.00 | 41 | 1020.5 |
| 20260503194931 | 61 | 193 | 4.0 | 14.0 | 0.00 | 0.00 | 0.00 | 43 | 1020.5 |
| 20260503194858 | 61 | 292 | 3.0 | 10.0 | 0.00 | 0.00 | 0.00 | 42 | 1020.6 |
| 20260503194848 | 61 | 153 | 3.0 | 10.0 | 0.00 | 0.00 | 0.00 | 42 | 1020.6 |
| 20260503194629 | 61 | 227 | 3.0 | 10.0 | 0.00 | 0.00 | 0.00 | 44 | 1020.5 |
| 20260503194528 | 61 | 186 | 3.0 | 10.0 | 0.00 | 0.00 | 0.00 | 44 | 1020.5 |
| 20260503194424 | 61 | 211 | 3.0 | 11.0 | 0.00 | 0.00 | 0.00 | 43 | 1020.5 |
| 20260503194355 | 61 | 166 | 4.0 | 11.0 | 0.00 | 0.00 | 0.00 | 46 | 1020.5 |
| 20260503194344 | 61 | 158 | 4.0 | 11.0 | 0.00 | 0.00 | 0.00 | 41 | 1020.5 |
| 20260503194123 | 61 | 165 | 4.0 | 12.0 | 0.00 | 0.00 | 0.00 | 45 | 1020.6 |
| 20260503194056 | 60 | 178 | 4.0 | 13.0 | 0.00 | 0.00 | 0.00 | 46 | 1020.5 |
| 20260503194045 | 60 | 214 | 4.0 | 12.0 | 0.00 | 0.00 | 0.00 | 44 | 1020.5 |
| 20260503193825 | 60 | 158 | 5.0 | 13.0 | 0.00 | 0.00 | 0.00 | 43 | 1020.5 |
| 20260503193723 | 60 | 153 | 5.0 | 13.0 | 0.00 | 0.00 | 0.00 | 44 | 1020.6 |
| 20260503193622 | 60 | 238 | 5.0 | 13.0 | 0.00 | 0.00 | 0.00 | 42 | 1020.6 |
| 20260503193520 | 60 | 210 | 5.0 | 13.0 | 0.00 | 0.00 | 0.00 | 45 | 1020.6 |
| 20260503193419 | 60 | 208 | 5.0 | 13.0 | 0.00 | 0.00 | 0.00 | 45 | 1020.7 |
| 20260503193319 | 60 | 178 | 5.0 | 13.0 | 0.00 | 0.00 | 0.00 | 44 | 1020.7 |
| 20260503193253 | 60 | 188 | 4.0 | 13.0 | 0.00 | 0.00 | 0.00 | 44 | 1020.7 |
| 20260503193241 | 60 | 229 | 4.0 | 13.0 | 0.00 | 0.00 | 0.00 | 44 | 1020.7 |
| 20260503193020 | 60 | 252 | 4.0 | 13.0 | 0.00 | 0.00 | 0.00 | 45 | 1020.7 |
| 20260503192956 | 60 | 212 | 3.0 | 10.0 | 0.00 | 0.00 | 0.00 | 43 | 1020.7 |
| 20260503192943 | 60 | 202 | 3.0 | 10.0 | 0.00 | 0.00 | 0.00 | 44 | 1020.7 |
| 20260503192719 | 60 | 208 | 3.0 | 10.0 | 0.00 | 0.00 | 0.00 | 44 | 1020.7 |
| 20260503192619 | 60 | 235 | 3.0 | 10.0 | 0.00 | 0.00 | 0.00 | 47 | 1020.8 |
| 20260503192521 | 60 | 183 | 4.0 | 11.0 | 0.00 | 0.00 | 0.00 | 45 | 1020.8 |
| 20260503192417 | 60 | 217 | 4.0 | 11.0 | 0.00 | 0.00 | 0.00 | 45 | 1020.8 |
| 20260503192316 | 60 | 225 | 4.0 | 11.0 | 0.00 | 0.00 | 0.00 | 45 | 1020.8 |
| 20260503192230 | 60 | 234 | 4.0 | 11.0 | 0.00 | 0.00 | 0.00 | 44 | 1020.9 |
| 20260503192224 | 60 | 235 | 4.0 | 11.0 | 0.00 | 0.00 | 0.00 | 42 | 1020.8 |
| 20260503192218 | 60 | 225 | 4.0 | 11.0 | 0.00 | 0.00 | 0.00 | 45 | 1020.8 |
| 20260503192155 | 60 | 211 | 4.0 | 11.0 | 0.00 | 0.00 | 0.00 | 43 | 1020.8 |
| 20260503191817 | 60 | 227 | 4.0 | 11.0 | 0.00 | 0.00 | 0.00 | 43 | 1021.0 |
| 20260503191716 | 60 | 218 | 3.0 | 11.0 | 0.00 | 0.00 | 0.00 | 45 | 1021.0 |
| 20260503191647 | 60 | 188 | 3.0 | 10.0 | 0.00 | 0.00 | 0.00 | 48 | 1020.9 |
| 20260503191636 | 60 | 219 | 3.0 | 11.0 | 0.00 | 0.00 | 0.00 | 45 | 1020.9 |
| 20260503191413 | 60 | 161 | 3.0 | 9.0 | 0.00 | 0.00 | 0.00 | 47 | 1020.9 |
| 20260503191349 | 60 | 209 | 3.0 | 9.0 | 0.00 | 0.00 | 0.00 | 46 | 1021.0 |
| 20260503191337 | 60 | 152 | 3.0 | 9.0 | 0.00 | 0.00 | 0.00 | 47 | 1020.9 |
| 20260503191114 | 60 | 215 | 3.0 | 12.0 | 0.00 | 0.00 | 0.00 | 45 | 1021.0 |
| 20260503191014 | 60 | 209 | 4.0 | 13.0 | 0.00 | 0.00 | 0.00 | 45 | 1021.0 |
| 20260503190915 | 60 | 202 | 4.0 | 13.0 | 0.00 | 0.00 | 0.00 | 44 | 1021.1 |
| 20260503190816 | 60 | 203 | 4.0 | 13.0 | 0.00 | 0.00 | 0.00 | 45 | 1021.2 |
| 20260503190715 | 60 | 205 | 3.0 | 13.0 | 0.00 | 0.00 | 0.00 | 43 | 1021.1 |
| 20260503190613 | 60 | 246 | 3.0 | 13.0 | 0.00 | 0.00 | 0.00 | 46 | 1021.2 |
| 20260503190513 | 60 | 229 | 3.0 | 13.0 | 0.00 | 0.00 | 0.00 | 46 | 1021.2 |
| 20260503190413 | 60 | 215 | 4.0 | 13.0 | 0.00 | 0.00 | 0.00 | 44 | 1021.2 |
| 20260503190346 | 60 | 248 | 3.0 | 13.0 | 0.00 | 0.00 | 0.00 | 43 | 1021.1 |
| 20260503190335 | 60 | 217 | 4.0 | 13.0 | 0.00 | 0.00 | 0.00 | 43 | 1021.2 |
| 20260503190113 | 60 | 200 | 3.0 | 13.0 | 0.00 | 0.00 | 0.00 | 45 | 1021.1 |
| 20260503190013 | 60 | 198 | 3.0 | 11.0 | 0.00 | 0.00 | 0.00 | 44 | 1021.1 |
| 20260503185914 | 60 | 208 | 3.0 | 11.0 | 0.00 | 0.00 | 0.00 | 46 | 1021.2 |
| 20260503185813 | 59 | 163 | 4.0 | 11.0 | 0.00 | 0.00 | 0.00 | 45 | 1021.2 |
| 20260503185749 | 59 | 260 | 4.0 | 16.0 | 0.00 | 0.00 | 0.00 | 45 | 1021.2 |
| 20260503185738 | 59 | 196 | 4.0 | 16.0 | 0.00 | 0.00 | 0.00 | 43 | 1021.3 |
| 20260503185514 | 59 | 5 | 4.0 | 16.0 | 0.00 | 0.00 | 0.00 | 42 | 1021.3 |
| 20260503185413 | 59 | 211 | 4.0 | 16.0 | 0.00 | 0.00 | 0.00 | 44 | 1021.3 |
| 20260503185314 | 59 | 250 | 4.0 | 16.0 | 0.00 | 0.00 | 0.00 | 42 | 1021.2 |
| 20260503185215 | 59 | 313 | 4.0 | 16.0 | 0.00 | 0.00 | 0.00 | 44 | 1021.3 |
| 20260503185111 | 59 | 192 | 4.0 | 16.0 | 0.00 | 0.00 | 0.00 | 45 | 1021.3 |
| 20260503185010 | 59 | 249 | 4.0 | 16.0 | 0.00 | 0.00 | 0.00 | 43 | 1021.3 |
| 20260503184946 | 59 | 281 | 3.0 | 16.0 | 0.00 | 0.00 | 0.00 | 42 | 1021.3 |
| 20260503184935 | 59 | 225 | 4.0 | 16.0 | 0.00 | 0.00 | 0.00 | 43 | 1021.2 |
| 20260503184709 | 59 | 208 | 3.0 | 9.0 | 0.00 | 0.00 | 0.00 | 45 | 1021.3 |
| 20260503184641 | 59 | 286 | 2.0 | 7.0 | 0.00 | 0.00 | 0.00 | 46 | 1021.3 |
| 20260503184631 | 59 | 196 | 3.0 | 8.0 | 0.00 | 0.00 | 0.00 | 46 | 1021.3 |
| 20260503184405 | 59 | 227 | 2.0 | 6.0 | 0.00 | 0.00 | 0.00 | 46 | 1021.4 |
| 20260503184306 | 59 | 278 | 3.0 | 6.0 | 0.00 | 0.00 | 0.00 | 42 | 1021.3 |
| 20260503184208 | 59 | 233 | 3.0 | 7.0 | 0.00 | 0.00 | 0.00 | 42 | 1021.4 |
| 20260503184108 | 59 | 221 | 3.0 | 12.0 | 0.00 | 0.00 | 0.00 | 42 | 1021.4 |
| 20260503184008 | 59 | 233 | 4.0 | 12.0 | 0.00 | 0.00 | 0.00 | 45 | 1021.5 |
| 20260503183906 | 59 | 336 | 3.0 | 12.0 | 0.00 | 0.00 | 0.00 | 45 | 1021.4 |
| 20260503183805 | 59 | 165 | 4.0 | 12.0 | 0.00 | 0.00 | 0.00 | 43 | 1021.5 |
| 20260503183705 | 59 | 163 | 4.0 | 12.0 | 0.00 | 0.00 | 0.00 | 44 | 1021.4 |
| 20260503183605 | 59 | 192 | 4.0 | 12.0 | 0.00 | 0.00 | 0.00 | 47 | 1021.4 |
| 20260503183506 | 58 | 216 | 4.0 | 12.0 | 0.00 | 0.00 | 0.00 | 46 | 1021.4 |
| 20260503183406 | 58 | 238 | 4.0 | 12.0 | 0.00 | 0.00 | 0.00 | 45 | 1021.4 |
| 20260503183305 | 58 | 197 | 5.0 | 12.0 | 0.00 | 0.00 | 0.00 | 44 | 1021.3 |
| 20260503183206 | 58 | 210 | 4.0 | 12.0 | 0.00 | 0.00 | 0.00 | 44 | 1021.4 |
| 20260503183106 | 58 | 203 | 4.0 | 11.0 | 0.00 | 0.00 | 0.00 | 46 | 1021.4 |
| 20260503183005 | 58 | 247 | 4.0 | 11.0 | 0.00 | 0.00 | 0.00 | 44 | 1021.3 |
| 20260503182906 | 58 | 236 | 4.0 | 11.0 | 0.00 | 0.00 | 0.00 | 45 | 1021.4 |
| 20260503182806 | 58 | 179 | 4.0 | 11.0 | 0.00 | 0.00 | 0.00 | 45 | 1021.3 |
| 20260503182706 | 58 | 193 | 4.0 | 11.0 | 0.00 | 0.00 | 0.00 | 46 | 1021.4 |
| 20260503182635 | 58 | 342 | 4.0 | 11.0 | 0.00 | 0.00 | 0.00 | 45 | 1021.4 |
| 20260503182625 | 58 | 284 | 4.0 | 11.0 | 0.00 | 0.00 | 0.00 | 45 | 1021.4 |
| 20260503182408 | 58 | 333 | 3.0 | 11.0 | 0.00 | 0.00 | 0.00 | 43 | 1021.5 |
| 20260503182338 | 58 | 194 | 3.0 | 8.0 | 0.00 | 0.00 | 0.00 | 42 | 1021.5 |
| 20260503182328 | 58 | 229 | 3.0 | 11.0 | 0.00 | 0.00 | 0.00 | 43 | 1021.5 |
| 20260503182105 | 58 | 327 | 3.0 | 8.0 | 0.00 | 0.00 | 0.00 | 46 | 1021.4 |
| 20260503182042 | 58 | 200 | 3.0 | 8.0 | 0.00 | 0.00 | 0.00 | 44 | 1021.5 |
| 20260503182031 | 58 | 249 | 3.0 | 8.0 | 0.00 | 0.00 | 0.00 | 43 | 1021.5 |
| 20260503181755 | 58 | 190 | 3.0 | 8.0 | 0.00 | 0.00 | 0.00 | 45 | 1021.5 |
| 20260503181731 | 58 | 338 | 2.0 | 8.0 | 0.00 | 0.00 | 0.00 | 46 | 1021.5 |
| 20260503181719 | 58 | 225 | 3.0 | 8.0 | 0.00 | 0.00 | 0.00 | 49 | 1021.4 |
| 20260503181454 | 58 | 339 | 3.0 | 9.0 | 0.00 | 0.00 | 0.00 | 45 | 1021.5 |
| 20260503181353 | 58 | 341 | 3.0 | 9.0 | 0.00 | 0.00 | 0.00 | 49 | 1021.5 |
| 20260503181256 | 58 | 190 | 3.0 | 9.0 | 0.00 | 0.00 | 0.00 | 51 | 1021.5 |
| 20260503181154 | 57 | 180 | 3.0 | 9.0 | 0.00 | 0.00 | 0.00 | 50 | 1021.5 |
| 20260503181128 | 57 | 175 | 4.0 | 9.0 | 0.00 | 0.00 | 0.00 | 44 | 1021.7 |
| 20260503181117 | 57 | 175 | 4.0 | 9.0 | 0.00 | 0.00 | 0.00 | 47 | 1021.7 |
| 20260503180854 | 57 | 175 | 4.0 | 9.0 | 0.00 | 0.00 | 0.00 | 44 | 1021.7 |
| 20260503180753 | 57 | 203 | 4.0 | 9.0 | 0.00 | 0.00 | 0.00 | 47 | 1021.5 |
| 20260503180649 | 57 | 192 | 4.0 | 9.0 | 0.00 | 0.00 | 0.00 | 51 | 1021.5 |
| 20260503180548 | 57 | 195 | 4.0 | 9.0 | 0.00 | 0.00 | 0.00 | 49 | 1021.5 |
| 20260503180448 | 57 | 114 | 4.0 | 12.0 | 0.00 | 0.00 | 0.00 | 45 | 1021.5 |
| 20260503180347 | 57 | 177 | 4.0 | 12.0 | 0.00 | 0.00 | 0.00 | 44 | 1021.5 |
| 20260503180247 | 57 | 267 | 4.0 | 12.0 | 0.00 | 0.00 | 0.00 | 45 | 1021.5 |
| 20260503180148 | 57 | 222 | 4.0 | 12.0 | 0.00 | 0.00 | 0.00 | 45 | 1021.5 |
| 20260503180118 | 57 | 212 | 4.0 | 12.0 | 0.00 | 0.00 | 0.00 | 45 | 1021.5 |
| 20260503180105 | 57 | 202 | 4.0 | 12.0 | 0.00 | 0.00 | 0.00 | 47 | 1021.5 |
| 20260503175845 | 57 | 171 | 4.0 | 12.0 | 0.00 | 0.00 | 0.00 | 46 | 1021.5 |
| 20260503175743 | 57 | 227 | 4.0 | 12.0 | 0.00 | 0.00 | 0.00 | 46 | 1021.7 |
| 20260503175642 | 56 | 210 | 4.0 | 12.0 | 0.00 | 0.00 | 0.00 | 48 | 1021.5 |
| 20260503175537 | 56 | 171 | 4.0 | 12.0 | 0.00 | 0.00 | 0.00 | 50 | 1021.5 |
| 20260503175435 | 56 | 242 | 4.0 | 11.0 | 0.00 | 0.00 | 0.00 | 47 | 1021.5 |
| 20260503175337 | 55 | 233 | 4.0 | 9.0 | 0.00 | 0.00 | 0.00 | 47 | 1021.4 |
| 20260503175236 | 56 | 246 | 4.0 | 9.0 | 0.00 | 0.00 | 0.00 | 45 | 1021.7 |
| 20260503175136 | 56 | 211 | 3.0 | 9.0 | 0.00 | 0.00 | 0.00 | 47 | 1021.5 |
| 20260503175032 | 56 | 211 | 3.0 | 9.0 | 0.00 | 0.00 | 0.00 | 46 | 1021.7 |
| 20260503174932 | 56 | 226 | 3.0 | 9.0 | 0.00 | 0.00 | 0.00 | 48 | 1021.5 |
| 20260503174832 | 55 | 244 | 3.0 | 9.0 | 0.00 | 0.00 | 0.00 | 49 | 1021.7 |
| 20260503174732 | 55 | 338 | 4.0 | 9.0 | 0.00 | 0.00 | 0.00 | 46 | 1021.7 |
| 20260503174629 | 55 | 341 | 4.0 | 9.0 | 0.00 | 0.00 | 0.00 | 48 | 1021.7 |
| 20260503174530 | 56 | 282 | 4.0 | 9.0 | 0.00 | 0.00 | 0.00 | 47 | 1021.8 |
| 20260503174429 | 55 | 214 | 4.0 | 9.0 | 0.00 | 0.00 | 0.00 | 46 | 1021.8 |
| 20260503174327 | 55 | 182 | 4.0 | 8.0 | 0.00 | 0.00 | 0.00 | 47 | 1021.8 |
| 20260503174305 | 55 | 229 | 4.0 | 8.0 | 0.00 | 0.00 | 0.00 | 47 | 1021.8 |
| 20260503174251 | 55 | 299 | 4.0 | 8.0 | 0.00 | 0.00 | 0.00 | 45 | 1021.8 |
| 20260503174056 | 56 | 321 | 4.0 | 8.0 | 0.00 | 0.00 | 0.00 | 49 | 1021.8 |
| 20260503174045 | 55 | 208 | 4.0 | 8.0 | 0.00 | 0.00 | 0.00 | 46 | 1021.8 |
| 20260503173830 | 55 | 189 | 3.0 | 9.0 | 0.00 | 0.00 | 0.00 | 52 | 1021.9 |
| 20260503173823 | 56 | 316 | 4.0 | 10.0 | 0.00 | 0.00 | 0.00 | 46 | 1021.9 |
| 20260503173805 | 55 | 157 | 3.0 | 9.0 | 0.00 | 0.00 | 0.00 | 47 | 1021.8 |
| 20260503173643 | 55 | 11 | 4.0 | 9.0 | 0.00 | 0.00 | 0.00 | 44 | 1021.8 |
| 20260503173421 | 56 | 232 | 4.0 | 10.0 | 0.00 | 0.00 | 0.00 | 46 | 1021.9 |
| 20260503173322 | 56 | 276 | 4.0 | 10.0 | 0.00 | 0.00 | 0.00 | 45 | 1021.8 |
| 20260503173222 | 56 | 257 | 4.0 | 10.0 | 0.00 | 0.00 | 0.00 | 46 | 1021.9 |
| 20260503173124 | 56 | 198 | 4.0 | 10.0 | 0.00 | 0.00 | 0.00 | 48 | 1021.9 |
| 20260503173022 | 56 | 198 | 4.0 | 10.0 | 0.00 | 0.00 | 0.00 | 51 | 1022.0 |
| 20260503172954 | 55 | 270 | 3.0 | 10.0 | 0.00 | 0.00 | 0.00 | 47 | 1021.9 |
| 20260503172941 | 56 | 240 | 4.0 | 10.0 | 0.00 | 0.00 | 0.00 | 46 | 1022.0 |
| 20260503172714 | 55 | 241 | 3.0 | 10.0 | 0.00 | 0.00 | 0.00 | 48 | 1021.9 |
| 20260503172615 | 55 | 189 | 3.0 | 10.0 | 0.00 | 0.00 | 0.00 | 50 | 1021.9 |
| 20260503172513 | 55 | 250 | 3.0 | 10.0 | 0.00 | 0.00 | 0.00 | 47 | 1021.8 |
| 20260503172411 | 55 | 294 | 3.0 | 10.0 | 0.00 | 0.00 | 0.00 | 47 | 1021.8 |
| 20260503172309 | 55 | 275 | 3.0 | 10.0 | 0.00 | 0.00 | 0.00 | 49 | 1021.9 |
| 20260503172205 | 55 | 196 | 2.0 | 6.0 | 0.00 | 0.00 | 0.00 | 51 | 1021.8 |
| 20260503172133 | 54 | 98 | 3.0 | 6.0 | 0.00 | 0.00 | 0.00 | 48 | 1021.8 |
| 20260503172125 | 54 | 113 | 3.0 | 6.0 | 0.00 | 0.00 | 0.00 | 51 | 1021.9 |
| 20260503171918 | 54 | 216 | 3.0 | 6.0 | 0.00 | 0.00 | 0.00 | 46 | 1021.9 |
| 20260503171756 | 54 | 205 | 3.0 | 7.0 | 0.00 | 0.00 | 0.00 | 45 | 1021.9 |
| 20260503171728 | 55 | 235 | 3.0 | 7.0 | 0.00 | 0.00 | 0.00 | 46 | 1021.9 |
| 20260503171716 | 55 | 205 | 3.0 | 7.0 | 0.00 | 0.00 | 0.00 | 45 | 1021.9 |
| 20260503171528 | 55 | 173 | 3.0 | 7.0 | 0.00 | 0.00 | 0.00 | 49 | 1021.9 |
| 20260503171518 | 55 | 268 | 3.0 | 7.0 | 0.00 | 0.00 | 0.00 | 47 | 1021.9 |
| 20260503171255 | 55 | 196 | 3.0 | 8.0 | 0.00 | 0.00 | 0.00 | 46 | 1021.8 |
| 20260503171155 | 54 | 193 | 3.0 | 8.0 | 0.00 | 0.00 | 0.00 | 52 | 1021.9 |
| 20260503171054 | 54 | 187 | 4.0 | 9.0 | 0.00 | 0.00 | 0.00 | 52 | 1021.9 |
| 20260503170952 | 54 | 171 | 4.0 | 9.0 | 0.00 | 0.00 | 0.00 | 48 | 1021.9 |
| 20260503170852 | 54 | 173 | 4.0 | 9.0 | 0.00 | 0.00 | 0.00 | 45 | 1022.0 |
| 20260503170754 | 54 | 194 | 3.0 | 9.0 | 0.00 | 0.00 | 0.00 | 48 | 1022.0 |
| 20260503170654 | 55 | 196 | 3.0 | 9.0 | 0.00 | 0.00 | 0.00 | 46 | 1022.1 |
| 20260503170551 | 55 | 217 | 3.0 | 9.0 | 0.00 | 0.00 | 0.00 | 46 | 1022.1 |
| 20260503170526 | 55 | 227 | 3.0 | 9.0 | 0.00 | 0.00 | 0.00 | 49 | 1022.1 |
| 20260503170516 | 55 | 242 | 3.0 | 9.0 | 0.00 | 0.00 | 0.00 | 48 | 1022.1 |
| 20260503170252 | 55 | 198 | 2.0 | 9.0 | 0.00 | 0.00 | 0.00 | 51 | 1022.1 |
| 20260503170152 | 55 | 270 | 2.0 | 9.0 | 0.00 | 0.00 | 0.00 | 51 | 1022.0 |
| 20260503160215 | 53 | 214 | 2.0 | 6.0 | 0.00 | 0.00 | 0.00 | 61 | 1022.6 |
| 20260503150735 | 46 | 217 | 1.0 | 3.0 | 0.00 | 0.00 | 0.00 | 71 | 1022.8 |
| 20260503150635 | 46 | 217 | 1.0 | 3.0 | 0.00 | 0.00 | 0.00 | 70 | 1022.8 |
| 20260503150533 | 46 | 217 | 1.0 | 3.0 | 0.00 | 0.00 | 0.00 | 70 | 1022.8 |
| 20260503150426 | 46 | 217 | 1.0 | 3.0 | 0.00 | 0.00 | 0.00 | 72 | 1022.8 |
| 20260503150326 | 46 | 217 | 1.0 | 3.0 | 0.00 | 0.00 | 0.00 | 72 | 1022.8 |
| 20260503150226 | 46 | 217 | 1.0 | 3.0 | 0.00 | 0.00 | 0.00 | 72 | 1022.8 |
| 20260503150154 | 46 | 217 | 1.0 | 4.0 | 0.00 | 0.00 | 0.00 | 71 | 1022.8 |
| 20260503150145 | 46 | 217 | 1.0 | 4.0 | 0.00 | 0.00 | 0.00 | 71 | 1022.8 |
| 20260503140249 | 47 | 140 | 1.0 | 3.0 | 0.00 | 0.00 | 0.00 | 77 | 1022.5 |
| 20260503140149 | 47 | 139 | 1.0 | 4.0 | 0.00 | 0.00 | 0.00 | 78 | 1022.5 |
| 20260503131341 | 47 | 82 | 2.0 | 6.0 | 0.00 | 0.00 | 0.00 | 70 | 1022.2 |
| 20260503131241 | 47 | 82 | 2.0 | 6.0 | 0.00 | 0.00 | 0.00 | 70 | 1022.2 |
| 20260503131154 | 47 | 84 | 1.0 | 6.0 | 0.00 | 0.00 | 0.00 | 72 | 1022.2 |
| 20260503131143 | 47 | 82 | 1.0 | 6.0 | 0.00 | 0.00 | 0.00 | 72 | 1022.2 |
| 20260503131138 | 47 | 76 | 1.0 | 3.0 | 0.00 | 0.00 | 0.00 | 72 | 1022.2 |
| 20260503131133 | 47 | 76 | 2.0 | 4.0 | 0.00 | 0.00 | 0.00 | 72 | 1022.2 |
| 20260503131126 | 47 | 76 | 2.0 | 4.0 | 0.00 | 0.00 | 0.00 | 71 | 1022.1 |
| 20260503131113 | 47 | 43 | 1.0 | 6.0 | 0.00 | 0.00 | 0.00 | 71 | 1022.2 |
| 20260503130933 | 47 | 76 | 1.0 | 3.0 | 0.00 | 0.00 | 0.00 | 72 | 1022.2 |
| 20260503130512 | 47 | 76 | 2.0 | 4.0 | 0.00 | 0.00 | 0.00 | 70 | 1022.2 |
| 20260503130507 | 47 | 76 | 2.0 | 4.0 | 0.00 | 0.00 | 0.00 | 69 | 1022.2 |
| 20260503130455 | 47 | 76 | 2.0 | 4.0 | 0.00 | 0.00 | 0.00 | 72 | 1022.2 |
| 20260503130129 | 47 | 77 | 2.0 | 4.0 | 0.00 | 0.00 | 0.00 | 70 | 1022.2 |
| 20260503120222 | 44 | 58 | 2.0 | 4.0 | 0.00 | 0.00 | 0.00 | 73 | 1021.8 |
| 20260503120120 | 44 | 58 | 2.0 | 4.0 | 0.00 | 0.00 | 0.00 | 73 | 1021.8 |
| 20260503110122 | 41 | 44 | 2.0 | 4.0 | 0.00 | 0.00 | 0.00 | 78 | 1020.9 |
| 20260503100204 | 42 | 58 | 4.0 | 10.0 | 0.00 | 0.00 | 0.00 | 78 | 1020.5 |
| 20260503090508 | 42 | 11 | 6.0 | 13.0 | 0.00 | 0.00 | 0.00 | 83 | 1020.3 |
| 20260503090407 | 42 | 51 | 6.0 | 13.0 | 0.00 | 0.00 | 0.00 | 83 | 1020.3 |
| 20260503090309 | 42 | 56 | 6.0 | 13.0 | 0.00 | 0.00 | 0.00 | 83 | 1020.4 |
| 20260503090206 | 42 | 34 | 6.0 | 13.0 | 0.00 | 0.00 | 0.00 | 84 | 1020.3 |
| 20260503090106 | 42 | 17 | 6.0 | 13.0 | 0.00 | 0.00 | 0.00 | 84 | 1020.3 |
| 20260503081526 | 41 | 0 | 5.0 | 11.0 | 0.00 | 0.00 | 0.00 | 90 | 1020.3 |
| 20260503081517 | 41 | 46 | 5.0 | 11.0 | 0.00 | 0.00 | 0.00 | 90 | 1020.4 |
| 20260503081256 | 41 | 34 | 5.0 | 11.0 | 0.00 | 0.00 | 0.00 | 90 | 1020.3 |
| 20260503081156 | 41 | 63 | 5.0 | 11.0 | 0.00 | 0.00 | 0.00 | 90 | 1020.3 |
| 20260503081056 | 41 | 53 | 5.0 | 10.0 | 0.00 | 0.00 | 0.00 | 90 | 1020.3 |
| 20260503080957 | 41 | 32 | 5.0 | 9.0 | 0.00 | 0.00 | 0.00 | 90 | 1020.4 |
| 20260503080929 | 41 | 49 | 5.0 | 11.0 | 0.00 | 0.00 | 0.00 | 90 | 1020.4 |
| 20260503080918 | 41 | 36 | 5.0 | 9.0 | 0.00 | 0.00 | 0.00 | 90 | 1020.3 |
| 20260503080656 | 41 | 23 | 5.0 | 11.0 | 0.00 | 0.00 | 0.00 | 90 | 1020.4 |
| 20260503080556 | 41 | 71 | 5.0 | 11.0 | 0.00 | 0.00 | 0.00 | 90 | 1020.3 |
| 20260503080527 | 41 | 55 | 5.0 | 11.0 | 0.00 | 0.00 | 0.00 | 90 | 1020.3 |
| 20260503080514 | 41 | 33 | 5.0 | 11.0 | 0.00 | 0.00 | 0.00 | 90 | 1020.4 |
| 20260503080252 | 41 | 64 | 5.0 | 11.0 | 0.00 | 0.00 | 0.00 | 90 | 1020.3 |
| 20260503080152 | 41 | 54 | 5.0 | 11.0 | 0.00 | 0.00 | 0.00 | 90 | 1020.3 |
| 20260503072837 | 41 | 346 | 5.0 | 10.0 | 0.00 | 0.00 | 0.00 | 91 | 1020.1 |
| 20260503072810 | 41 | 325 | 5.0 | 10.0 | 0.00 | 0.00 | 0.00 | 91 | 1020.1 |
| 20260503072759 | 41 | 38 | 5.0 | 10.0 | 0.00 | 0.00 | 0.00 | 91 | 1020.1 |
| 20260503072537 | 41 | 19 | 5.0 | 10.0 | 0.00 | 0.00 | 0.00 | 91 | 1020.2 |
| 20260503072439 | 41 | 44 | 5.0 | 11.0 | 0.00 | 0.00 | 0.00 | 91 | 1020.1 |
| 20260503072410 | 41 | 350 | 5.0 | 11.0 | 0.00 | 0.00 | 0.00 | 91 | 1020.1 |
| 20260503072359 | 41 | 19 | 5.0 | 11.0 | 0.00 | 0.00 | 0.00 | 91 | 1019.9 |
| 20260503072137 | 41 | 22 | 5.0 | 11.0 | 0.00 | 0.00 | 0.00 | 91 | 1019.9 |
| 20260503072052 | 41 | 355 | 5.0 | 11.0 | 0.00 | 0.00 | 0.00 | 91 | 1020.1 |
| 20260503072047 | 41 | 350 | 5.0 | 11.0 | 0.00 | 0.00 | 0.00 | 91 | 1020.1 |
| 20260503072036 | 41 | 30 | 5.0 | 11.0 | 0.00 | 0.00 | 0.00 | 91 | 1019.9 |
| 20260503072014 | 41 | 59 | 5.0 | 11.0 | 0.00 | 0.00 | 0.00 | 91 | 1020.1 |
| 20260503071630 | 41 | 38 | 5.0 | 11.0 | 0.00 | 0.00 | 0.00 | 91 | 1019.9 |
| 20260503071545 | 41 | 80 | 5.0 | 10.0 | 0.00 | 0.00 | 0.00 | 91 | 1019.9 |
| 20260503071534 | 41 | 314 | 5.0 | 11.0 | 0.00 | 0.00 | 0.00 | 91 | 1020.1 |
| 20260503071526 | 41 | 312 | 4.0 | 10.0 | 0.00 | 0.00 | 0.00 | 91 | 1020.1 |
| 20260503071508 | 41 | 31 | 4.0 | 10.0 | 0.00 | 0.00 | 0.00 | 91 | 1020.1 |
| 20260503071123 | 41 | 0 | 4.0 | 10.0 | 0.00 | 0.00 | 0.00 | 91 | 1019.9 |
| 20260503071025 | 41 | 344 | 4.0 | 10.0 | 0.00 | 0.00 | 0.00 | 91 | 1019.9 |
| 20260503070924 | 41 | 355 | 4.0 | 10.0 | 0.00 | 0.00 | 0.00 | 91 | 1019.9 |
| 20260503070824 | 41 | 5 | 4.0 | 10.0 | 0.00 | 0.00 | 0.00 | 91 | 1019.9 |
| 20260503070720 | 41 | 36 | 4.0 | 10.0 | 0.00 | 0.00 | 0.00 | 91 | 1019.8 |
| 20260503070618 | 41 | 30 | 4.0 | 10.0 | 0.00 | 0.00 | 0.00 | 91 | 1019.8 |
| 20260503070519 | 41 | 10 | 4.0 | 10.0 | 0.00 | 0.00 | 0.00 | 91 | 1019.9 |
| 20260503070417 | 41 | 345 | 4.0 | 10.0 | 0.00 | 0.00 | 0.00 | 91 | 1019.8 |
| 20260503070318 | 41 | 327 | 4.0 | 10.0 | 0.00 | 0.00 | 0.00 | 91 | 1019.8 |
| 20260503070247 | 41 | 355 | 4.0 | 10.0 | 0.00 | 0.00 | 0.00 | 90 | 1019.9 |
| 20260503070236 | 41 | 32 | 4.0 | 10.0 | 0.00 | 0.00 | 0.00 | 91 | 1019.9 |
| 20260503055101 | 41 | 0 | 3.0 | 9.0 | 0.00 | 0.00 | 0.00 | 86 | 1019.8 |
| 20260503055054 | 42 | 9 | 4.0 | 9.0 | 0.00 | 0.00 | 0.00 | 86 | 1019.8 |
| 20260503055035 | 41 | 34 | 4.0 | 9.0 | 0.00 | 0.00 | 0.00 | 86 | 1019.7 |
| 20260503054912 | 42 | 16 | 4.0 | 9.0 | 0.00 | 0.00 | 0.00 | 86 | 1019.7 |
| 20260503054652 | 42 | 17 | 4.0 | 9.0 | 0.00 | 0.00 | 0.00 | 86 | 1019.8 |
| 20260503054551 | 42 | 11 | 4.0 | 8.0 | 0.00 | 0.00 | 0.00 | 86 | 1019.8 |
| 20260503054451 | 42 | 11 | 4.0 | 8.0 | 0.00 | 0.00 | 0.00 | 86 | 1019.9 |
| 20260503054413 | 42 | 17 | 4.0 | 8.0 | 0.00 | 0.00 | 0.00 | 86 | 1019.9 |
| 20260503054407 | 42 | 14 | 4.0 | 8.0 | 0.00 | 0.00 | 0.00 | 86 | 1019.8 |
| 20260503054355 | 42 | 338 | 4.0 | 8.0 | 0.00 | 0.00 | 0.00 | 86 | 1019.8 |
| 20260503054332 | 42 | 50 | 4.0 | 8.0 | 0.00 | 0.00 | 0.00 | 86 | 1019.9 |
| 20260503053951 | 41 | 28 | 4.0 | 8.0 | 0.00 | 0.00 | 0.00 | 87 | 1019.7 |
| 20260503053853 | 41 | 34 | 4.0 | 8.0 | 0.00 | 0.00 | 0.00 | 86 | 1019.8 |
| 20260503053749 | 41 | 5 | 4.0 | 8.0 | 0.00 | 0.00 | 0.00 | 87 | 1019.8 |
| 20260503053647 | 41 | 31 | 4.0 | 8.0 | 0.00 | 0.00 | 0.00 | 87 | 1019.8 |
| 20260503053548 | 41 | 17 | 4.0 | 8.0 | 0.00 | 0.00 | 0.00 | 87 | 1019.8 |
| 20260503053447 | 41 | 46 | 4.0 | 8.0 | 0.00 | 0.00 | 0.00 | 87 | 1019.8 |
| 20260503053349 | 41 | 51 | 4.0 | 9.0 | 0.00 | 0.00 | 0.00 | 87 | 1019.7 |
| 20260503053248 | 41 | 31 | 4.0 | 9.0 | 0.00 | 0.00 | 0.00 | 87 | 1019.7 |
| 20260503053216 | 41 | 5 | 4.0 | 9.0 | 0.00 | 0.00 | 0.00 | 87 | 1019.7 |
| 20260503053205 | 41 | 23 | 4.0 | 9.0 | 0.00 | 0.00 | 0.00 | 88 | 1019.8 |
| 20260503052942 | 41 | 27 | 4.0 | 9.0 | 0.00 | 0.00 | 0.00 | 88 | 1019.7 |
| 20260503052841 | 41 | 30 | 4.0 | 9.0 | 0.00 | 0.00 | 0.00 | 88 | 1019.7 |
| 20260503052742 | 41 | 18 | 4.0 | 9.0 | 0.00 | 0.00 | 0.00 | 88 | 1019.7 |
| 20260503052641 | 41 | 55 | 5.0 | 9.0 | 0.00 | 0.00 | 0.00 | 89 | 1019.7 |
| 20260503052616 | 41 | 28 | 4.0 | 9.0 | 0.00 | 0.00 | 0.00 | 89 | 1019.7 |
| 20260503052604 | 41 | 65 | 4.0 | 9.0 | 0.00 | 0.00 | 0.00 | 89 | 1019.7 |
| 20260503052340 | 41 | 36 | 4.0 | 9.0 | 0.00 | 0.00 | 0.00 | 89 | 1019.7 |
| 20260503052240 | 41 | 13 | 4.0 | 9.0 | 0.00 | 0.00 | 0.00 | 89 | 1019.7 |
| 20260503052140 | 41 | 27 | 4.0 | 9.0 | 0.00 | 0.00 | 0.00 | 89 | 1019.7 |
| 20260503052112 | 41 | 18 | 4.0 | 8.0 | 0.00 | 0.00 | 0.00 | 89 | 1019.7 |
| 20260503052102 | 41 | 46 | 4.0 | 8.0 | 0.00 | 0.00 | 0.00 | 89 | 1019.7 |
| 20260503051841 | 41 | 36 | 3.0 | 8.0 | 0.00 | 0.00 | 0.00 | 89 | 1019.7 |
| 20260503051739 | 41 | 42 | 3.0 | 8.0 | 0.00 | 0.00 | 0.00 | 89 | 1019.8 |
| 20260503051641 | 41 | 25 | 3.0 | 8.0 | 0.00 | 0.00 | 0.00 | 89 | 1019.7 |
| 20260503051605 | 41 | 34 | 3.0 | 7.0 | 0.00 | 0.00 | 0.00 | 90 | 1019.7 |
| 20260503051556 | 41 | 28 | 3.0 | 7.0 | 0.00 | 0.00 | 0.00 | 89 | 1019.7 |
| 20260503051333 | 41 | 30 | 3.0 | 7.0 | 0.00 | 0.00 | 0.00 | 90 | 1019.8 |
| 20260503051234 | 41 | 30 | 3.0 | 7.0 | 0.00 | 0.00 | 0.00 | 90 | 1019.7 |
| 20260503051134 | 41 | 34 | 3.0 | 7.0 | 0.00 | 0.00 | 0.00 | 90 | 1019.7 |
| 20260503051103 | 41 | 339 | 4.0 | 11.0 | 0.00 | 0.00 | 0.00 | 89 | 1019.8 |
| 20260503051052 | 41 | 11 | 4.0 | 7.0 | 0.00 | 0.00 | 0.00 | 89 | 1019.8 |
| 20260503050900 | 41 | 5 | 4.0 | 11.0 | 0.00 | 0.00 | 0.00 | 89 | 1019.8 |
| 20260503050849 | 41 | 25 | 4.0 | 11.0 | 0.00 | 0.00 | 0.00 | 89 | 1019.7 |
| 20260503050628 | 41 | 28 | 4.0 | 11.0 | 0.00 | 0.00 | 0.00 | 89 | 1019.7 |
| 20260503050528 | 41 | 17 | 4.0 | 11.0 | 0.00 | 0.00 | 0.00 | 89 | 1019.7 |
| 20260503050421 | 41 | 57 | 4.0 | 11.0 | 0.00 | 0.00 | 0.00 | 89 | 1019.7 |
| 20260503050322 | 41 | 19 | 4.0 | 11.0 | 0.00 | 0.00 | 0.00 | 89 | 1019.7 |
| 20260503050219 | 42 | 343 | 4.0 | 11.0 | 0.00 | 0.00 | 0.00 | 89 | 1019.7 |
| 20260503050121 | 42 | 338 | 4.0 | 11.0 | 0.00 | 0.00 | 0.00 | 88 | 1019.7 |
| 20260503050021 | 42 | 15 | 4.0 | 11.0 | 0.00 | 0.00 | 0.00 | 88 | 1019.7 |
| 20260503045921 | 42 | 22 | 3.0 | 8.0 | 0.00 | 0.00 | 0.00 | 88 | 1019.7 |
| 20260503045820 | 42 | 48 | 3.0 | 8.0 | 0.00 | 0.00 | 0.00 | 88 | 1019.6 |
| 20260503045720 | 42 | 34 | 3.0 | 8.0 | 0.00 | 0.00 | 0.00 | 87 | 1019.6 |
| 20260503045618 | 42 | 19 | 3.0 | 8.0 | 0.00 | 0.00 | 0.00 | 87 | 1019.6 |
| 20260503045547 | 42 | 61 | 4.0 | 8.0 | 0.00 | 0.00 | 0.00 | 87 | 1019.6 |
| 20260503045538 | 42 | 26 | 4.0 | 8.0 | 0.00 | 0.00 | 0.00 | 87 | 1019.6 |
| 20260503045316 | 42 | 51 | 4.0 | 8.0 | 0.00 | 0.00 | 0.00 | 86 | 1019.6 |
| 20260503045217 | 42 | 43 | 4.0 | 8.0 | 0.00 | 0.00 | 0.00 | 86 | 1019.5 |
| 20260503045116 | 42 | 38 | 4.0 | 8.0 | 0.00 | 0.00 | 0.00 | 86 | 1019.6 |
| 20260503045016 | 42 | 32 | 4.0 | 8.0 | 0.00 | 0.00 | 0.00 | 85 | 1019.5 |
| 20260503044916 | 42 | 17 | 4.0 | 8.0 | 0.00 | 0.00 | 0.00 | 85 | 1019.5 |
| 20260503044816 | 42 | 41 | 4.0 | 8.0 | 0.00 | 0.00 | 0.00 | 85 | 1019.5 |
| 20260503044712 | 42 | 5 | 4.0 | 8.0 | 0.00 | 0.00 | 0.00 | 84 | 1019.5 |
| 20260503044614 | 42 | 37 | 4.0 | 8.0 | 0.00 | 0.00 | 0.00 | 84 | 1019.5 |
| 20260503044514 | 42 | 21 | 4.0 | 8.0 | 0.00 | 0.00 | 0.00 | 84 | 1019.5 |
| 20260503044446 | 42 | 22 | 4.0 | 8.0 | 0.00 | 0.00 | 0.00 | 83 | 1019.5 |
| 20260503044435 | 42 | 67 | 4.0 | 8.0 | 0.00 | 0.00 | 0.00 | 83 | 1019.5 |
| 20260503044248 | 42 | 88 | 4.0 | 8.0 | 0.00 | 0.00 | 0.00 | 82 | 1019.5 |
| 20260503044236 | 42 | 33 | 4.0 | 8.0 | 0.00 | 0.00 | 0.00 | 83 | 1019.5 |
| 20260503044013 | 42 | 24 | 4.0 | 8.0 | 0.00 | 0.00 | 0.00 | 82 | 1019.5 |
| 20260503043912 | 43 | 54 | 4.0 | 8.0 | 0.00 | 0.00 | 0.00 | 82 | 1019.4 |
| 20260503043813 | 43 | 58 | 4.0 | 8.0 | 0.00 | 0.00 | 0.00 | 82 | 1019.4 |
| 20260503043746 | 43 | 36 | 4.0 | 9.0 | 0.00 | 0.00 | 0.00 | 82 | 1019.4 |
| 20260503043734 | 43 | 52 | 4.0 | 8.0 | 0.00 | 0.00 | 0.00 | 82 | 1019.5 |
| 20260503043513 | 42 | 53 | 4.0 | 9.0 | 0.00 | 0.00 | 0.00 | 82 | 1019.4 |
| 20260503043413 | 43 | 44 | 4.0 | 9.0 | 0.00 | 0.00 | 0.00 | 82 | 1019.4 |
| 20260503043314 | 43 | 56 | 4.0 | 10.0 | 0.00 | 0.00 | 0.00 | 81 | 1019.4 |
| 20260503043213 | 43 | 47 | 4.0 | 11.0 | 0.00 | 0.00 | 0.00 | 81 | 1019.4 |
| 20260503043112 | 43 | 24 | 4.0 | 11.0 | 0.00 | 0.00 | 0.00 | 81 | 1019.4 |
| 20260503043011 | 43 | 46 | 4.0 | 11.0 | 0.00 | 0.00 | 0.00 | 81 | 1019.4 |
| 20260503042906 | 43 | 72 | 4.0 | 11.0 | 0.00 | 0.00 | 0.00 | 81 | 1019.5 |
| 20260503042807 | 43 | 59 | 4.0 | 11.0 | 0.00 | 0.00 | 0.00 | 81 | 1019.4 |
| 20260503042706 | 43 | 32 | 4.0 | 11.0 | 0.00 | 0.00 | 0.00 | 81 | 1019.4 |
| 20260503042607 | 43 | 33 | 4.0 | 11.0 | 0.00 | 0.00 | 0.00 | 81 | 1019.4 |
| 20260503042504 | 43 | 65 | 4.0 | 11.0 | 0.00 | 0.00 | 0.00 | 80 | 1019.3 |
| 20260503042359 | 43 | 74 | 4.0 | 11.0 | 0.00 | 0.00 | 0.00 | 81 | 1019.4 |
| 20260503042301 | 43 | 55 | 4.0 | 11.0 | 0.00 | 0.00 | 0.00 | 81 | 1019.4 |
| 20260503042201 | 43 | 13 | 4.0 | 11.0 | 0.00 | 0.00 | 0.00 | 81 | 1019.3 |
| 20260503042102 | 43 | 64 | 4.0 | 11.0 | 0.00 | 0.00 | 0.00 | 80 | 1019.4 |
| 20260503041956 | 43 | 58 | 4.0 | 11.0 | 0.00 | 0.00 | 0.00 | 80 | 1019.4 |
| 20260503041931 | 43 | 52 | 4.0 | 11.0 | 0.00 | 0.00 | 0.00 | 80 | 1019.4 |
| 20260503041921 | 43 | 51 | 4.0 | 11.0 | 0.00 | 0.00 | 0.00 | 80 | 1019.4 |
| 20260503041655 | 43 | 65 | 4.0 | 11.0 | 0.00 | 0.00 | 0.00 | 80 | 1019.4 |
| 20260503041555 | 43 | 72 | 4.0 | 10.0 | 0.00 | 0.00 | 0.00 | 80 | 1019.4 |
| 20260503041454 | 43 | 20 | 5.0 | 10.0 | 0.00 | 0.00 | 0.00 | 80 | 1019.4 |
| 20260503041357 | 43 | 80 | 5.0 | 12.0 | 0.00 | 0.00 | 0.00 | 80 | 1019.4 |
| 20260503041254 | 43 | 42 | 5.0 | 12.0 | 0.00 | 0.00 | 0.00 | 80 | 1019.3 |
| 20260503041227 | 43 | 59 | 5.0 | 12.0 | 0.00 | 0.00 | 0.00 | 80 | 1019.3 |
| 20260503041217 | 43 | 59 | 5.0 | 12.0 | 0.00 | 0.00 | 0.00 | 80 | 1019.3 |
| 20260503040956 | 43 | 55 | 5.0 | 12.0 | 0.00 | 0.00 | 0.00 | 80 | 1019.4 |
| 20260503040925 | 43 | 34 | 5.0 | 12.0 | 0.00 | 0.00 | 0.00 | 80 | 1019.4 |
| 20260503040914 | 43 | 5 | 5.0 | 12.0 | 0.00 | 0.00 | 0.00 | 80 | 1019.4 |
| 20260503040722 | 43 | 66 | 5.0 | 12.0 | 0.00 | 0.00 | 0.00 | 80 | 1019.4 |
| 20260503040712 | 43 | 56 | 5.0 | 12.0 | 0.00 | 0.00 | 0.00 | 80 | 1019.4 |
| 20260503040449 | 43 | 77 | 5.0 | 12.0 | 0.00 | 0.00 | 0.00 | 81 | 1019.3 |
| 20260503040350 | 43 | 49 | 5.0 | 11.0 | 0.00 | 0.00 | 0.00 | 81 | 1019.4 |
| 20260503040239 | 43 | 31 | 5.0 | 11.0 | 0.00 | 0.00 | 0.00 | 82 | 1019.4 |
| 20260503040201 | 43 | 41 | 5.0 | 10.0 | 0.00 | 0.00 | 0.00 | 82 | 1019.4 |
| 20260503040155 | 43 | 49 | 5.0 | 10.0 | 0.00 | 0.00 | 0.00 | 82 | 1019.4 |
| 20260503040144 | 43 | 17 | 5.0 | 9.0 | 0.00 | 0.00 | 0.00 | 82 | 1019.4 |
| 20260503040118 | 43 | 42 | 5.0 | 9.0 | 0.00 | 0.00 | 0.00 | 82 | 1019.4 |
| 20260503035734 | 42 | 15 | 5.0 | 10.0 | 0.00 | 0.00 | 0.00 | 82 | 1019.3 |
| 20260503035707 | 42 | 14 | 5.0 | 13.0 | 0.00 | 0.00 | 0.00 | 83 | 1019.3 |
| 20260503035657 | 42 | 53 | 5.0 | 10.0 | 0.00 | 0.00 | 0.00 | 82 | 1019.3 |
| 20260503035435 | 42 | 63 | 5.0 | 13.0 | 0.00 | 0.00 | 0.00 | 83 | 1019.3 |
| 20260503035333 | 42 | 17 | 5.0 | 13.0 | 0.00 | 0.00 | 0.00 | 84 | 1019.3 |
| 20260503035227 | 42 | 81 | 4.0 | 13.0 | 0.00 | 0.00 | 0.00 | 84 | 1019.2 |
| 20260503035126 | 42 | 55 | 5.0 | 13.0 | 0.00 | 0.00 | 0.00 | 84 | 1019.3 |
| 20260503035026 | 42 | 57 | 5.0 | 13.0 | 0.00 | 0.00 | 0.00 | 84 | 1019.2 |
| 20260503034927 | 42 | 47 | 5.0 | 13.0 | 0.00 | 0.00 | 0.00 | 84 | 1019.2 |
| 20260503034827 | 42 | 48 | 5.0 | 13.0 | 0.00 | 0.00 | 0.00 | 84 | 1019.2 |
| 20260503034747 | 42 | 34 | 5.0 | 13.0 | 0.00 | 0.00 | 0.00 | 85 | 1019.2 |
| 20260503034734 | 42 | 39 | 5.0 | 13.0 | 0.00 | 0.00 | 0.00 | 85 | 1019.2 |
| 20260503034513 | 42 | 42 | 5.0 | 12.0 | 0.00 | 0.00 | 0.00 | 85 | 1019.3 |
| 20260503034414 | 42 | 23 | 5.0 | 12.0 | 0.00 | 0.00 | 0.00 | 85 | 1019.2 |
| 20260503034313 | 42 | 69 | 5.0 | 12.0 | 0.00 | 0.00 | 0.00 | 86 | 1019.2 |
| 20260503034208 | 42 | 44 | 5.0 | 12.0 | 0.00 | 0.00 | 0.00 | 86 | 1019.2 |
| 20260503034108 | 42 | 49 | 5.0 | 11.0 | 0.00 | 0.00 | 0.00 | 87 | 1019.3 |
| 20260503034007 | 42 | 68 | 4.0 | 11.0 | 0.00 | 0.00 | 0.00 | 87 | 1019.4 |
| 20260503033908 | 42 | 60 | 5.0 | 11.0 | 0.00 | 0.00 | 0.00 | 87 | 1019.4 |
| 20260503033837 | 42 | 57 | 4.0 | 9.0 | 0.00 | 0.00 | 0.00 | 88 | 1019.3 |
| 20260503033825 | 42 | 35 | 4.0 | 9.0 | 0.00 | 0.00 | 0.00 | 88 | 1019.3 |
| 20260503033601 | 42 | 63 | 4.0 | 9.0 | 0.00 | 0.00 | 0.00 | 89 | 1019.3 |
| 20260503033501 | 42 | 16 | 4.0 | 9.0 | 0.00 | 0.00 | 0.00 | 89 | 1019.3 |
| 20260503033401 | 42 | 44 | 4.0 | 9.0 | 0.00 | 0.00 | 0.00 | 89 | 1019.4 |
| 20260503033300 | 42 | 61 | 4.0 | 9.0 | 0.00 | 0.00 | 0.00 | 90 | 1019.3 |
| 20260503033152 | 42 | 88 | 4.0 | 9.0 | 0.00 | 0.00 | 0.00 | 90 | 1019.4 |
| 20260503033051 | 42 | 54 | 4.0 | 9.0 | 0.00 | 0.00 | 0.00 | 90 | 1019.4 |
| 20260503032951 | 42 | 54 | 4.0 | 9.0 | 0.00 | 0.00 | 0.00 | 90 | 1019.4 |
| 20260503032854 | 42 | 44 | 4.0 | 9.0 | 0.00 | 0.00 | 0.00 | 90 | 1019.4 |
| 20260503032752 | 42 | 42 | 4.0 | 9.0 | 0.00 | 0.00 | 0.00 | 90 | 1019.4 |
| 20260503032643 | 42 | 45 | 4.0 | 9.0 | 0.00 | 0.00 | 0.00 | 90 | 1019.4 |
| 20260503032545 | 42 | 44 | 4.0 | 9.0 | 0.00 | 0.00 | 0.00 | 90 | 1019.5 |
| 20260503032443 | 42 | 60 | 4.0 | 9.0 | 0.00 | 0.00 | 0.00 | 90 | 1019.4 |
| 20260503032344 | 42 | 55 | 4.0 | 9.0 | 0.00 | 0.00 | 0.00 | 91 | 1019.4 |
| 20260503032312 | 42 | 50 | 4.0 | 9.0 | 0.00 | 0.00 | 0.00 | 91 | 1019.4 |
| 20260503032304 | 42 | 16 | 4.0 | 9.0 | 0.00 | 0.00 | 0.00 | 91 | 1019.4 |
| 20260503032038 | 42 | 56 | 4.0 | 9.0 | 0.00 | 0.00 | 0.00 | 91 | 1019.4 |
| 20260503031940 | 42 | 56 | 4.0 | 9.0 | 0.00 | 0.00 | 0.00 | 91 | 1019.4 |
| 20260503031838 | 42 | 44 | 4.0 | 7.0 | 0.00 | 0.00 | 0.00 | 91 | 1019.4 |
| 20260503031739 | 42 | 42 | 4.0 | 8.0 | 0.00 | 0.00 | 0.00 | 91 | 1019.4 |
| 20260503031631 | 42 | 66 | 4.0 | 10.0 | 0.00 | 0.00 | 0.00 | 91 | 1019.4 |
| 20260503031528 | 42 | 53 | 4.0 | 10.0 | 0.00 | 0.00 | 0.00 | 91 | 1019.4 |
| 20260503031500 | 42 | 51 | 4.0 | 10.0 | 0.00 | 0.00 | 0.00 | 91 | 1019.3 |
| 20260503031450 | 42 | 19 | 4.0 | 10.0 | 0.00 | 0.00 | 0.00 | 91 | 1019.4 |
| 20260503031229 | 42 | 34 | 4.0 | 10.0 | 0.00 | 0.00 | 0.00 | 91 | 1019.4 |
| 20260503031124 | 42 | 36 | 4.0 | 10.0 | 0.00 | 0.00 | 0.00 | 91 | 1019.4 |
| 20260503031024 | 42 | 65 | 4.0 | 10.0 | 0.00 | 0.00 | 0.00 | 91 | 1019.4 |
| 20260503030925 | 42 | 50 | 4.0 | 10.0 | 0.00 | 0.00 | 0.00 | 91 | 1019.3 |
| 20260503030825 | 42 | 59 | 4.0 | 10.0 | 0.00 | 0.00 | 0.00 | 91 | 1019.3 |
| 20260503030723 | 42 | 64 | 4.0 | 11.0 | 0.00 | 0.00 | 0.00 | 91 | 1019.3 |
| 20260503030647 | 42 | 52 | 4.0 | 11.0 | 0.00 | 0.00 | 0.00 | 91 | 1019.3 |
| 20260503030637 | 42 | 39 | 4.0 | 11.0 | 0.00 | 0.00 | 0.00 | 91 | 1019.3 |
| 20260503030417 | 42 | 65 | 4.0 | 11.0 | 0.00 | 0.00 | 0.00 | 91 | 1019.3 |
| 20260503030316 | 42 | 26 | 4.0 | 11.0 | 0.00 | 0.00 | 0.00 | 91 | 1019.3 |
| 20260503030216 | 42 | 64 | 4.0 | 11.0 | 0.00 | 0.00 | 0.00 | 91 | 1019.3 |
| 20260503030004 | 42 | 59 | 4.0 | 11.0 | 0.00 | 0.00 | 0.00 | 91 | 1019.3 |
| 20260503025902 | 42 | 38 | 4.0 | 11.0 | 0.00 | 0.00 | 0.00 | 91 | 1019.3 |
| 20260503025803 | 42 | 59 | 4.0 | 11.0 | 0.00 | 0.00 | 0.00 | 91 | 1019.3 |
| 20260503025703 | 42 | 51 | 4.0 | 10.0 | 0.00 | 0.00 | 0.00 | 91 | 1019.3 |
| 20260503025559 | 42 | 55 | 4.0 | 10.0 | 0.00 | 0.00 | 0.00 | 91 | 1019.3 |
| 20260503025458 | 42 | 41 | 4.0 | 10.0 | 0.00 | 0.00 | 0.00 | 91 | 1019.3 |
| 20260503025355 | 42 | 57 | 4.0 | 10.0 | 0.00 | 0.00 | 0.00 | 91 | 1019.3 |
| 20260503025257 | 42 | 42 | 4.0 | 10.0 | 0.00 | 0.00 | 0.00 | 91 | 1019.3 |
| 20260503025157 | 42 | 57 | 4.0 | 10.0 | 0.00 | 0.00 | 0.00 | 92 | 1019.4 |
| 20260503025051 | 42 | 22 | 4.0 | 10.0 | 0.00 | 0.00 | 0.00 | 92 | 1019.3 |
| 20260503024949 | 42 | 44 | 4.0 | 10.0 | 0.00 | 0.00 | 0.00 | 92 | 1019.3 |
| 20260503024852 | 42 | 30 | 4.0 | 10.0 | 0.00 | 0.00 | 0.00 | 91 | 1019.3 |
| 20260503024750 | 42 | 69 | 4.0 | 10.0 | 0.00 | 0.00 | 0.00 | 91 | 1019.3 |
| 20260503024651 | 42 | 70 | 4.0 | 10.0 | 0.00 | 0.00 | 0.00 | 91 | 1019.4 |
| 20260503024537 | 43 | 350 | 4.0 | 10.0 | 0.00 | 0.00 | 0.00 | 91 | 1019.3 |
| 20260503024438 | 43 | 67 | 4.0 | 10.0 | 0.00 | 0.00 | 0.00 | 91 | 1019.3 |
| 20260503024413 | 43 | 60 | 3.0 | 10.0 | 0.00 | 0.00 | 0.00 | 91 | 1019.3 |
| 20260503024401 | 43 | 56 | 4.0 | 10.0 | 0.00 | 0.00 | 0.00 | 91 | 1019.3 |
| 20260503024136 | 43 | 38 | 3.0 | 10.0 | 0.00 | 0.00 | 0.00 | 91 | 1019.3 |
| 20260503024102 | 43 | 46 | 3.0 | 9.0 | 0.00 | 0.00 | 0.00 | 91 | 1019.3 |
| 20260503024052 | 43 | 60 | 3.0 | 10.0 | 0.00 | 0.00 | 0.00 | 91 | 1019.3 |
| 20260503023900 | 43 | 37 | 3.0 | 10.0 | 0.00 | 0.00 | 0.00 | 91 | 1019.3 |
| 20260503023850 | 43 | 5 | 3.0 | 10.0 | 0.00 | 0.00 | 0.00 | 91 | 1019.3 |
| 20260503023631 | 43 | 36 | 3.0 | 10.0 | 0.00 | 0.00 | 0.00 | 91 | 1019.3 |
| 20260503023523 | 43 | 5 | 3.0 | 10.0 | 0.00 | 0.00 | 0.00 | 91 | 1019.3 |
| 20260503023425 | 43 | 62 | 4.0 | 10.0 | 0.00 | 0.00 | 0.00 | 91 | 1019.3 |
| 20260503023324 | 43 | 32 | 4.0 | 10.0 | 0.00 | 0.00 | 0.00 | 91 | 1019.4 |
| 20260503023222 | 43 | 38 | 4.0 | 10.0 | 0.00 | 0.00 | 0.00 | 91 | 1019.4 |
| 20260503023151 | 43 | 44 | 4.0 | 10.0 | 0.00 | 0.00 | 0.00 | 91 | 1019.3 |
| 20260503023141 | 43 | 50 | 4.0 | 10.0 | 0.00 | 0.00 | 0.00 | 91 | 1019.3 |
| 20260503022950 | 43 | 25 | 4.0 | 11.0 | 0.00 | 0.00 | 0.00 | 91 | 1019.3 |
| 20260503022938 | 43 | 55 | 4.0 | 10.0 | 0.00 | 0.00 | 0.00 | 91 | 1019.3 |
| 20260503022714 | 43 | 48 | 4.0 | 11.0 | 0.00 | 0.00 | 0.00 | 91 | 1019.3 |
| 20260503022644 | 43 | 59 | 4.0 | 11.0 | 0.00 | 0.00 | 0.00 | 91 | 1019.2 |
| 20260503022633 | 43 | 64 | 4.0 | 11.0 | 0.00 | 0.00 | 0.00 | 91 | 1019.2 |
| 20260503022409 | 43 | 12 | 4.0 | 11.0 | 0.00 | 0.00 | 0.00 | 91 | 1019.3 |
| 20260503022310 | 43 | 46 | 4.0 | 11.0 | 0.00 | 0.00 | 0.00 | 90 | 1019.2 |
| 20260503022244 | 43 | 29 | 4.0 | 11.0 | 0.00 | 0.00 | 0.00 | 90 | 1019.1 |
| 20260503022233 | 43 | 50 | 4.0 | 11.0 | 0.00 | 0.00 | 0.00 | 90 | 1019.1 |
| 20260503022033 | 43 | 42 | 4.0 | 11.0 | 0.00 | 0.00 | 0.00 | 90 | 1019.1 |
| 20260503022024 | 43 | 64 | 4.0 | 11.0 | 0.00 | 0.00 | 0.00 | 90 | 1019.1 |
| 20260503021804 | 43 | 36 | 4.0 | 9.0 | 0.00 | 0.00 | 0.00 | 90 | 1019.1 |
| 20260503021705 | 43 | 40 | 4.0 | 9.0 | 0.00 | 0.00 | 0.00 | 90 | 1019.1 |
| 20260503021603 | 43 | 72 | 4.0 | 9.0 | 0.00 | 0.00 | 0.00 | 90 | 1019.0 |
| 20260503021453 | 43 | 48 | 4.0 | 9.0 | 0.00 | 0.00 | 0.00 | 90 | 1019.1 |
| 20260503021353 | 43 | 56 | 4.0 | 9.0 | 0.00 | 0.00 | 0.00 | 90 | 1019.1 |
| 20260503021253 | 43 | 0 | 4.0 | 9.0 | 0.00 | 0.00 | 0.00 | 90 | 1019.0 |
| 20260503021153 | 43 | 32 | 4.0 | 9.0 | 0.00 | 0.00 | 0.00 | 90 | 1018.9 |
| 20260503021053 | 43 | 57 | 4.0 | 11.0 | 0.00 | 0.00 | 0.00 | 90 | 1019.0 |